ECMWFFLT2_sfc_temp_000.txt.gz
Temp
67 68 68 68 68 68 70 73 72 73 73 73 73 74 75 75 74 74 74 73 71 72 71 72 73 72 74 72 72 73 73 74 73 73 73 73 73 73 73 72 71 71 71 70 70 70 70 69 70 70 70 70 69 64 65 67 67 68 67 67 68 67
68 68 68 69 70 70 70 72 69 69 71 72 73 73 73 72 75 71 73 72 71 71 69 69 70 73 71 72 73 73 73 74 73 73 73 73 73 72 72 71 71 70 70 70 70 66 66 68 69 69 70 70 64 63 65 66 66 67 67 66 67 69
69 69 69 69 70 70 69 68 68 69 71 73 74 74 71 73 71 71 71 72 71 70 69 69 70 70 70 73 72 73 73 74 73 73 73 72 72 72 71 71 70 70 69 70 67 63 63 61 61 68 67 64 62 63 64 65 65 66 67 67 66 72
70 69 69 69 70 68 68 68 68 68 69 69 70 72 71 71 71 72 72 70 68 69 69 68 74 74 73 70 71 72 73 73 73 73 73 72 72 71 71 71 70 70 69 67 63 62 63 62 61 60 62 62 61 63 64 65 64 65 66 69 68 72
70 69 69 69 70 68 67 67 67 67 68 67 67 68 68 69 70 70 70 69 69 68 68 68 68 69 67 68 68 68 70 70 70 70 71 66 67 69 68 66 67 67 63 64 63 62 63 63 62 62 61 62 63 63 65 65 65 65 66 67 68 72
68 68 68 67 67 70 69 67 67 67 67 66 66 66 66 67 68 68 68 69 69 68 68 68 67 67 67 67 68 69 69 69 69 69 69 66 65 66 65 64 64 63 63 63 64 64 64 64 63 61 61 61 63 64 64 64 65 65 66 65 68 72
66 65 66 68 67 67 66 66 66 67 67 66 66 66 65 67 68 68 68 69 68 68 68 68 66 68 69 67 65 67 68 69 69 68 67 66 65 65 65 64 63 63 62 63 64 65 64 65 63 63 62 63 64 65 65 65 65 65 65 65 68 72
64 65 66 68 67 66 65 67 69 70 67 70 67 65 65 65 66 66 68 68 69 68 69 67 67 67 67 66 66 68 67 68 68 67 67 66 66 64 65 64 64 64 65 65 65 65 65 67 64 64 64 64 64 64 64 65 65 65 65 66 67 71
63 64 65 67 66 65 65 65 65 66 66 71 65 65 65 65 65 66 66 68 69 67 66 66 66 66 66 66 67 67 67 67 68 68 67 65 66 65 65 64 64 64 64 64 64 65 65 67 65 64 64 65 65 65 64 65 65 65 65 65 66 69
64 65 65 66 64 63 63 64 64 65 67 69 64 65 65 64 64 64 65 66 67 66 66 65 65 65 66 66 67 67 66 67 67 67 67 66 65 65 64 64 65 65 66 65 65 65 66 66 67 66 65 64 65 66 65 65 65 65 65 65 66 68
65 67 63 65 63 63 63 63 64 64 65 64 65 66 65 65 64 64 65 66 66 67 67 66 65 65 65 66 66 67 67 67 66 66 67 67 67 67 66 65 66 65 65 66 66 66 66 67 67 68 66 66 66 65 66 66 66 66 66 65 65 65
62 63 63 64 64 63 63 64 64 63 63 64 66 64 65 65 66 64 66 65 65 66 68 66 66 65 66 65 65 66 66 66 66 66 67 67 66 67 66 67 68 68 66 66 66 65 66 66 66 68 68 68 65 66 66 66 67 67 67 65 65 65
61 60 61 61 62 61 62 64 62 61 63 66 64 63 63 63 64 65 65 65 65 66 67 66 66 66 66 66 65 65 66 66 67 67 66 67 68 66 66 66 66 67 66 66 66 67 68 67 66 67 68 68 66 67 68 67 66 66 66 66 65 65
61 61 62 61 61 61 60 61 62 61 64 60 62 62 64 62 64 63 65 67 66 66 66 66 67 66 67 66 67 67 67 67 67 67 66 67 66 66 66 67 67 67 67 66 65 67 65 66 66 66 66 69 66 66 66 67 66 66 66 66 66 65
62 59 61 61 61 60 60 60 60 59 60 60 62 61 61 61 61 62 64 64 66 67 66 65 65 65 66 66 65 66 66 67 68 67 66 66 66 65 66 66 65 66 66 65 66 66 67 67 66 67 66 66 68 67 65 67 66 66 66 66 65 65
59 59 59 61 58 59 59 59 61 64 60 59 60 60 59 61 61 61 63 62 64 66 66 65 66 66 65 65 64 65 66 68 68 67 66 66 65 65 65 65 66 65 64 65 67 67 66 67 66 68 67 66 67 66 65 65 66 66 66 65 65 65
59 59 59 59 57 59 58 59 59 59 60 60 60 59 59 60 61 62 62 62 63 65 65 66 67 66 65 65 65 66 65 65 66 67 66 66 65 64 65 66 65 66 66 65 66 68 68 66 67 68 66 65 66 66 66 65 66 66 68 64 65 65
58 58 59 60 59 58 59 59 57 59 64 61 60 61 61 62 61 61 61 61 63 64 65 64 65 65 65 66 66 66 65 65 66 65 64 64 64 65 64 65 66 67 67 67 66 66 66 67 69 69 66 66 65 64 66 66 66 66 65 65 64 65
59 57 57 58 59 57 57 57 56 57 58 58 58 58 60 60 60 60 60 61 62 63 64 63 64 64 64 65 64 64 64 66 66 65 65 65 64 64 65 65 66 66 67 67 66 66 66 66 69 70 69 68 66 66 65 65 66 65 65 67 66 67
59 59 57 57 57 57 57 58 57 58 58 58 56 59 58 58 59 59 61 60 60 61 62 63 62 62 63 63 61 61 62 64 64 64 63 63 64 64 65 65 66 67 65 65 67 66 64 63 64 66 66 67 67 66 65 64 65 66 66 66 66 66
59 58 59 58 57 57 56 55 55 57 56 56 57 57 57 56 57 58 59 60 60 60 60 61 61 61 59 62 59 60 61 61 62 63 64 64 65 65 64 64 64 63 63 64 66 65 65 63 62 61 61 62 64 67 66 64 65 65 66 66 65 64
58 58 59 59 59 57 53 54 56 57 53 56 57 56 56 56 57 60 59 58 59 58 59 59 61 59 59 58 59 59 60 61 61 61 62 63 63 65 65 64 64 63 64 63 63 64 64 64 60 60 61 60 61 64 64 64 65 66 66 66 66 65
58 59 59 60 57 57 55 56 56 54 57 56 56 55 54 57 60 57 56 57 58 58 58 58 57 60 60 59 57 58 59 59 60 61 61 61 61 61 62 64 64 63 63 63 63 65 64 64 61 62 61 60 57 60 62 63 63 65 66 66 65 66
59 59 59 59 62 57 59 56 56 57 56 54 57 59 55 55 56 57 58 58 57 57 57 57 58 59 58 58 58 58 58 59 59 60 60 60 61 61 61 62 64 64 63 62 62 62 64 63 62 61 58 58 59 58 55 59 62 65 66 66 65 66
59 59 58 60 59 58 60 57 57 57 57 58 58 54 54 54 54 59 58 57 57 56 57 58 58 58 60 57 57 58 59 59 59 59 61 60 60 61 61 61 62 62 62 62 62 61 62 64 63 63 60 58 56 56 56 57 58 60 61 64 66 67
58 57 58 59 59 60 61 59 57 57 55 54 54 54 53 54 54 54 55 56 57 57 58 57 58 57 58 59 57 57 57 58 58 59 60 59 60 60 60 61 61 62 62 63 62 61 61 62 63 62 62 62 60 57 57 59 59 55 57 61 66 69
59 58 59 58 59 60 57 58 59 58 56 56 55 52 50 51 53 54 53 55 56 57 57 58 58 57 57 59 57 57 56 57 57 58 60 58 58 59 59 61 61 61 61 61 62 61 62 61 62 62 62 63 62 61 61 59 56 56 56 56 59 62
60 59 59 59 58 60 59 56 56 55 56 54 55 55 53 53 53 55 53 56 55 56 57 58 57 57 57 58 58 56 56 56 56 57 59 57 57 58 59 60 60 59 61 61 61 61 62 62 60 61 63 62 61 62 62 62 61 58 55 54 57 60
59 59 58 59 59 58 60 57 57 56 55 55 55 56 55 57 55 55 53 54 55 56 55 55 56 56 56 57 59 56 55 55 55 56 59 58 57 58 58 57 58 58 58 58 59 59 60 61 62 61 60 61 61 61 62 63 63 61 58 55 56 57
59 59 59 59 59 58 58 58 56 55 56 54 55 54 54 54 53 53 53 53 54 54 55 56 55 55 55 56 55 56 55 54 54 56 59 56 56 57 57 57 57 57 57 58 58 59 60 60 61 61 61 60 60 61 61 61 61 60 59 59 57 57
60 59 59 59 59 58 57 57 57 55 56 55 55 55 53 52 52 52 53 53 53 53 54 55 55 56 55 55 55 57 54 54 56 57 56 55 55 55 56 56 57 56 57 56 57 57 59 59 60 60 61 61 61 61 61 59 60 60 59 58 57 58
59 59 59 59 59 59 58 57 57 56 56 57 56 56 55 54 54 54 53 53 53 53 53 54 54 54 54 54 55 53 54 53 55 54 54 54 55 55 56 56 56 56 56 56 56 57 57 56 58 58 59 60 61 61 61 60 61 60 60 60 59 58
59 59 59 59 59 58 57 57 57 56 56 57 56 56 56 55 54 54 53 53 52 52 52 53 53 53 53 53 54 53 52 52 52 53 53 53 53 54 54 54 55 55 55 55 55 55 55 55 56 57 58 60 60 61 61 62 61 61 62 61 60 57
60 59 59 59 59 58 58 58 58 57 57 57 56 56 55 56 54 54 54 54 54 53 52 54 52 53 54 53 53 54 53 51 52 52 53 52 53 53 53 54 54 53 54 54 55 54 54 55 56 57 58 58 59 61 61 61 61 61 60 60 59 58
60 59 59 59 59 58 58 57 57 57 57 57 56 55 55 57 55 54 53 55 54 53 52 53 52 54 54 53 53 51 52 52 52 51 51 52 54 53 52 53 54 53 54 54 54 54 53 54 55 55 56 56 58 59 60 61 61 61 61 60 59 60
61 59 59 59 59 59 58 57 56 56 56 57 57 56 55 55 55 55 55 55 54 53 54 53 52 54 53 53 52 52 53 51 51 51 52 52 51 51 52 52 51 51 52 55 53 53 53 53 53 54 54 56 56 56 59 60 61 61 62 62 62 60
61 60 59 60 59 59 58 56 56 56 55 55 56 55 55 54 55 55 55 54 54 53 53 53 54 54 53 52 52 52 51 51 50 50 50 50 51 50 50 50 50 50 50 51 52 51 52 52 53 53 53 54 55 56 57 59 60 61 62 61 60 60

ECMWFFLT2_sfc_temp_003.txt.gz
Temp
65 65 66 66 67 68 71 74 73 74 74 74 73 75 73 74 74 74 73 73 72 71 70 71 72 71 74 72 73 73 74 74 74 74 74 73 73 73 73 72 72 71 71 71 71 71 71 70 70 70 70 70 69 64 65 65 65 65 64 65 67 65
64 65 65 66 68 68 69 71 69 69 71 72 72 74 73 72 75 70 74 71 70 71 69 68 70 73 70 72 72 73 74 74 74 74 73 73 73 72 73 72 71 71 71 70 71 65 65 68 70 70 69 67 63 62 65 65 64 64 64 64 65 67
66 65 65 66 67 69 69 69 70 70 70 73 72 72 70 71 70 69 70 70 69 69 69 69 69 71 69 72 72 74 74 74 74 73 73 73 72 72 71 71 71 71 70 70 64 62 61 60 62 68 66 63 61 61 64 64 64 64 64 64 64 69
66 66 66 65 67 67 68 69 70 70 70 70 69 70 69 70 69 69 69 69 68 68 68 68 72 73 73 70 71 73 73 73 73 73 73 72 72 71 72 71 71 71 69 65 61 61 61 60 60 60 61 62 61 60 63 63 63 63 63 67 65 70
67 66 66 65 67 66 68 68 68 69 70 69 70 71 70 68 67 68 68 68 68 68 67 68 68 68 66 67 68 68 69 70 70 69 72 67 68 69 68 65 66 66 63 63 61 60 61 60 61 61 60 60 61 60 63 64 63 63 63 64 65 70
66 66 66 65 65 67 69 66 66 68 68 67 69 69 68 67 67 68 67 68 67 67 67 67 67 66 65 66 66 67 68 68 67 67 68 67 66 66 65 65 65 64 63 62 62 61 61 61 60 60 60 60 61 61 63 62 62 63 64 64 66 71
65 65 65 66 65 66 64 64 64 67 67 64 66 66 65 66 67 66 66 67 66 67 68 68 67 66 65 66 66 66 68 69 68 66 66 66 66 65 64 62 61 61 60 61 62 62 61 61 60 60 60 60 60 61 62 62 62 62 63 64 66 71
64 65 64 65 65 65 64 65 67 69 66 69 66 63 65 65 66 67 67 66 68 68 67 66 66 66 66 65 65 67 69 68 68 67 65 64 65 64 63 62 61 60 62 62 62 63 62 63 61 60 61 60 60 61 62 62 63 63 63 63 65 69
64 64 64 65 65 64 64 64 65 66 66 70 65 65 66 65 66 66 66 68 69 68 67 66 65 65 66 65 66 66 68 68 68 67 65 64 64 64 63 63 61 61 61 61 61 61 63 63 62 60 60 61 62 62 62 62 63 62 63 63 64 66
63 64 63 64 63 63 62 63 63 64 65 67 65 65 66 64 64 65 65 67 68 67 66 65 66 66 65 65 65 67 66 67 67 67 66 65 63 63 62 63 62 62 63 62 62 62 64 62 63 63 62 62 62 63 62 62 62 63 63 63 64 65
63 64 62 63 62 62 62 62 63 65 66 64 66 66 65 64 64 64 65 65 66 67 65 64 65 66 66 65 67 67 65 66 66 66 66 65 65 64 63 62 63 62 61 62 62 63 64 63 63 65 63 64 63 63 62 63 63 64 63 63 63 64
60 62 63 62 63 61 61 62 62 62 63 63 65 63 64 64 65 64 65 65 66 67 66 64 64 65 65 64 65 67 66 66 65 65 66 66 65 65 64 65 65 64 63 63 63 63 63 63 64 65 65 65 64 63 61 62 63 64 64 64 63 64
59 59 60 61 61 60 60 62 61 60 61 64 63 63 62 63 64 65 65 66 65 67 67 65 64 64 65 64 65 65 65 66 65 65 66 67 67 65 65 65 65 65 63 63 63 62 64 63 63 64 65 66 64 64 64 63 63 63 63 64 63 63
59 59 59 59 60 59 59 59 60 59 63 61 61 61 63 61 63 64 65 66 66 66 66 66 65 64 65 66 66 65 64 65 65 65 65 66 65 65 65 65 65 64 65 64 63 63 62 63 63 63 64 66 64 64 63 63 62 63 63 63 64 63
61 59 61 60 60 59 59 59 57 57 58 59 60 60 59 61 61 62 65 65 66 67 66 65 66 66 65 66 66 66 65 65 66 65 65 65 65 65 65 65 65 65 64 64 64 64 64 64 63 64 65 65 65 64 63 64 63 63 63 63 63 63
58 58 58 59 56 57 58 57 60 62 58 57 58 59 58 60 61 61 62 61 64 67 67 66 66 65 64 64 64 64 66 66 67 66 65 65 65 65 65 64 65 65 64 64 64 65 64 64 64 65 65 64 65 64 63 63 63 63 64 63 63 63
58 59 58 57 56 55 56 57 57 58 58 57 57 56 58 59 62 62 61 61 62 64 64 67 67 67 65 64 64 63 64 64 65 67 66 65 65 65 65 65 64 65 65 64 65 66 66 64 64 64 65 64 65 64 64 64 63 63 65 62 63 63
58 59 59 58 56 56 56 57 56 58 60 58 57 58 59 61 60 60 60 61 61 63 63 64 65 66 66 65 65 65 64 64 64 64 65 66 65 65 64 65 64 64 65 65 65 65 65 64 65 66 65 65 65 64 64 64 64 63 63 63 62 62
58 57 56 56 57 56 56 56 55 56 56 56 57 57 58 59 59 59 59 60 61 62 62 62 63 64 65 65 64 64 63 64 65 65 64 64 64 65 65 64 64 64 66 66 65 65 64 63 65 67 66 65 66 65 65 65 64 63 63 64 64 64
56 56 55 55 56 55 56 56 56 56 57 56 56 59 57 56 57 58 59 59 59 60 61 61 60 61 62 63 62 63 64 64 62 63 63 63 64 64 64 65 65 65 65 65 66 65 64 63 62 62 63 65 65 65 65 65 64 64 63 63 63 63
56 55 57 56 55 55 55 53 54 54 54 53 56 56 56 55 56 56 56 58 58 59 58 60 59 59 58 62 61 61 60 61 63 63 63 63 64 64 64 64 64 63 62 62 63 65 65 63 61 60 62 62 62 65 65 64 64 64 64 64 62 62
55 55 56 56 57 57 52 53 52 54 51 53 54 54 56 55 56 57 56 56 57 56 56 57 59 58 58 57 59 59 61 60 60 61 63 63 63 64 65 64 63 62 62 62 61 63 64 63 60 58 59 60 61 62 63 63 64 64 65 64 63 62
56 57 56 57 56 56 53 55 54 51 54 53 52 52 52 55 57 54 54 54 55 55 55 56 56 59 59 57 57 57 57 58 59 60 60 60 60 61 61 63 63 62 61 62 62 63 63 63 60 59 58 60 56 59 61 61 62 64 65 65 63 63
56 56 57 58 59 56 56 54 54 53 52 52 54 55 53 52 53 54 56 54 55 54 55 55 56 58 56 55 55 56 56 57 58 58 59 59 59 60 60 62 63 64 64 61 61 61 64 63 61 59 56 57 55 56 54 58 61 63 65 65 64 65
57 57 57 58 57 55 57 54 55 56 55 56 56 51 53 54 51 56 56 55 56 54 55 55 55 57 57 55 55 55 56 55 57 56 58 57 58 59 59 60 61 63 63 62 61 61 61 62 62 62 59 56 54 54 55 56 56 59 61 63 64 65
56 56 57 56 55 58 58 56 56 55 55 52 53 53 53 53 53 53 53 53 54 54 55 55 54 55 57 57 55 54 54 56 56 57 57 56 56 57 58 59 60 61 62 62 62 61 61 62 62 62 62 61 58 56 55 57 59 55 58 61 64 65
58 57 56 56 56 59 56 57 58 58 56 55 54 52 49 49 51 51 51 54 54 54 54 54 54 54 55 55 55 54 55 55 56 56 56 56 56 56 57 59 59 59 60 62 62 60 60 61 61 62 62 62 61 61 61 57 54 54 55 56 59 61
57 58 56 56 56 58 58 57 56 55 56 54 55 55 51 51 50 52 51 53 53 53 52 54 54 53 54 55 55 54 54 54 55 57 57 55 55 55 57 58 58 58 58 59 60 60 60 61 60 60 60 60 61 61 62 61 60 58 56 55 58 60
57 57 55 56 57 57 59 58 57 55 54 53 53 53 52 54 52 52 51 52 53 52 52 53 53 54 53 55 57 54 53 54 54 55 56 55 55 56 55 56 56 57 56 57 58 60 60 59 60 60 60 61 61 61 61 60 60 60 57 56 57 58
56 56 56 56 57 56 57 58 55 54 55 53 53 51 51 51 51 50 52 51 52 53 52 53 52 53 53 53 53 54 53 53 53 54 55 53 53 54 54 55 55 55 56 56 56 57 58 58 59 59 60 60 60 60 60 60 60 60 60 59 56 57
57 56 56 57 56 56 56 57 57 55 55 54 52 52 51 50 50 50 51 51 51 52 51 53 52 52 52 52 53 54 52 52 53 55 54 52 52 53 53 53 54 54 55 54 55 55 55 56 56 56 57 58 58 58 58 57 57 58 58 57 57 58
56 56 56 57 56 56 56 56 57 56 56 55 54 54 53 53 51 52 50 51 50 51 52 52 51 51 51 51 52 50 51 51 52 51 51 52 52 52 52 52 52 54 53 53 54 54 53 53 54 54 55 56 57 58 57 58 59 60 59 59 58 58
57 56 56 57 56 56 55 56 56 56 56 56 55 55 54 53 52 52 51 50 49 51 50 53 51 51 52 51 51 51 51 51 51 52 51 52 51 51 51 51 52 51 51 52 52 52 52 52 52 53 53 54 55 56 57 59 60 60 60 60 59 57
59 57 57 56 57 56 56 56 56 57 56 56 55 55 54 54 53 52 52 52 52 51 51 52 51 50 51 50 50 52 51 49 49 50 51 50 50 51 51 52 51 50 51 51 51 51 51 51 52 52 52 52 53 54 55 57 58 59 59 59 58 58
59 57 57 57 57 56 56 56 56 57 56 56 56 55 55 55 54 53 51 52 52 50 51 52 51 51 51 50 50 49 49 49 49 49 49 49 51 49 49 51 51 50 51 51 50 51 50 51 52 51 51 51 52 53 53 54 56 56 58 58 58 58
60 58 58 58 57 58 57 57 56 55 56 56 57 56 55 54 53 54 53 53 52 51 52 51 50 50 50 50 50 50 50 48 48 49 49 49 48 49 49 49 48 48 48 52 50 49 49 49 50 50 50 51 51 51 53 54 54 54 55 56 57 58
59 58 58 58 58 58 57 56 55 56 55 55 55 55 55 53 53 53 53 53 52 52 50 50 51 50 50 49 48 49 49 48 48 48 47 49 48 48 48 48 48 47 47 48 49 48 48 48 48 49 49 50 49 51 51 52 53 53 53 54 55 56

ECMWFFLT2_sfc_temp_006.txt.gz
Temp
65 67 69 69 70 70 72 74 73 74 74 73 72 72 73 72 72 73 73 73 72 71 69 70 72 71 74 72 72 74 74 74 74 73 73 73 73 73 73 73 72 71 72 72 71 71 71 71 71 70 70 70 71 67 66 66 66 67 67 68 68 66
64 65 67 68 69 70 71 71 69 69 71 72 72 72 71 70 71 69 73 71 69 71 69 68 69 73 71 72 72 73 74 74 74 74 73 73 73 73 73 72 72 72 71 71 69 66 67 70 71 69 68 67 65 65 66 66 66 66 67 67 67 67
64 63 65 67 69 70 70 70 69 69 71 72 72 70 69 69 67 68 70 71 69 68 68 69 68 70 70 72 71 74 73 74 74 74 73 73 73 72 72 72 72 71 71 68 63 62 62 62 65 67 65 64 64 65 65 66 66 66 66 67 67 69
64 63 64 66 68 69 69 69 70 70 70 69 69 69 68 68 67 68 67 68 68 68 68 68 73 74 73 71 71 74 74 74 73 74 73 72 73 72 72 72 71 71 67 64 62 62 61 61 61 61 62 62 63 63 65 65 65 65 65 68 66 70
65 64 64 65 68 68 68 69 69 70 70 70 69 67 67 66 66 67 67 67 67 67 67 67 67 68 66 67 67 68 70 70 70 69 72 68 68 69 69 67 67 66 64 64 62 61 62 62 62 62 62 62 62 62 65 65 65 65 65 67 67 69
64 64 64 64 66 69 68 67 68 69 69 69 70 69 68 67 66 66 66 67 67 66 67 67 67 65 65 66 66 67 67 68 67 67 68 67 67 66 66 67 66 65 64 64 63 62 64 62 61 61 61 61 62 64 64 65 65 65 65 65 67 70
63 62 64 66 66 66 66 67 67 68 68 67 68 68 67 67 66 65 66 67 65 65 67 68 67 65 64 65 65 66 67 68 68 66 67 68 67 66 66 66 65 64 63 64 63 62 62 61 61 61 61 61 62 64 64 65 65 65 65 65 67 70
62 63 63 64 64 65 65 66 68 68 67 69 68 66 66 66 66 65 65 66 66 66 67 67 66 65 65 65 65 65 67 68 68 68 67 68 67 66 65 65 64 62 63 63 64 63 63 62 61 61 62 61 62 63 63 64 65 64 65 65 66 69
64 64 63 64 64 65 65 65 65 65 66 70 65 66 66 67 66 66 65 66 67 66 66 67 66 66 65 65 65 66 66 68 68 67 66 66 67 65 64 64 63 62 61 61 62 62 64 64 62 61 62 63 63 63 63 63 64 64 65 65 65 67
64 63 62 63 63 63 63 63 64 64 65 68 65 66 66 65 66 66 66 67 68 68 67 66 65 66 65 64 65 66 66 67 67 67 65 65 65 65 64 63 62 62 63 61 63 63 64 63 63 63 62 64 63 64 64 63 63 64 65 65 65 66
62 64 62 62 61 62 62 62 64 66 66 65 64 65 65 64 65 65 66 67 68 68 68 66 66 66 66 65 65 65 65 67 67 66 65 65 64 65 64 64 63 63 62 62 63 63 64 64 63 65 64 65 64 63 64 64 64 64 65 65 65 65
61 62 63 62 63 62 61 63 64 66 65 65 65 64 64 64 65 65 66 66 67 67 67 66 66 66 66 65 65 65 65 64 66 67 66 65 64 64 64 64 65 64 64 64 63 63 63 63 64 65 65 65 65 64 64 64 64 64 65 65 65 65
60 61 61 61 61 59 59 62 63 65 64 65 63 64 64 64 64 65 65 66 66 67 66 65 65 65 66 65 64 65 64 65 65 66 66 66 66 65 64 64 64 65 63 63 64 63 64 63 63 64 65 66 65 65 65 65 64 64 65 65 65 65
59 59 60 59 59 58 58 58 59 60 63 60 60 62 64 64 65 64 65 66 66 66 65 65 65 64 65 65 64 64 64 64 65 64 64 66 65 65 65 64 64 64 65 63 63 63 63 64 64 64 64 65 65 65 65 65 64 65 65 65 66 65
60 58 60 59 58 58 57 57 56 57 58 59 59 59 59 62 63 64 65 65 66 67 67 66 66 65 65 66 66 65 64 65 65 65 65 64 65 65 65 65 64 64 64 64 64 64 64 64 64 65 65 65 66 65 64 65 64 64 65 65 64 65
58 58 57 58 55 56 55 55 58 60 58 57 58 58 58 59 61 61 62 62 65 67 67 67 66 66 65 66 65 65 65 65 65 65 64 64 64 64 65 65 65 65 63 64 64 65 64 64 64 64 65 64 64 65 64 64 64 65 65 64 65 65
57 57 56 55 54 54 54 55 55 55 56 56 56 56 57 59 60 60 60 61 61 64 65 67 67 66 66 65 64 63 63 64 65 65 65 65 64 64 64 65 64 64 64 64 64 65 65 64 63 64 65 65 65 64 64 65 65 65 65 64 64 65
56 57 56 56 55 55 55 56 55 57 59 56 56 57 58 59 59 59 60 60 61 63 64 64 64 65 64 65 64 63 64 65 65 64 63 65 65 65 65 65 64 64 65 64 64 65 65 65 64 65 65 65 65 64 65 65 65 66 65 65 64 64
57 55 55 55 56 55 54 54 54 55 56 56 56 56 57 58 57 59 58 59 61 61 62 61 62 64 64 64 64 63 63 64 65 65 64 64 64 64 64 64 64 64 65 65 65 65 65 63 64 64 65 66 66 65 65 65 65 65 65 66 66 66
55 55 55 55 56 55 55 55 56 55 56 55 56 57 56 55 57 57 59 59 59 59 60 61 60 61 62 62 62 62 63 63 62 63 62 62 63 63 63 63 63 64 63 64 65 65 64 62 62 62 62 64 65 66 66 65 65 65 65 65 65 66
54 55 57 56 55 54 54 52 52 53 53 52 56 55 56 55 56 56 56 57 58 57 58 60 59 59 59 62 59 60 60 61 61 62 63 63 64 64 64 64 64 63 63 62 63 65 65 63 61 59 60 62 64 65 65 65 65 65 65 65 65 64
54 55 57 57 57 56 51 53 52 54 50 52 54 54 55 55 55 56 56 55 56 56 56 58 60 58 58 58 59 59 59 60 61 62 63 63 63 64 64 64 64 63 63 62 61 63 63 62 59 59 57 58 60 63 64 64 65 65 66 66 65 64
55 55 55 57 57 57 51 52 51 50 54 51 49 51 52 54 55 54 54 54 55 54 56 56 57 59 58 57 57 57 58 58 59 61 60 61 61 61 62 63 64 63 61 62 62 63 62 63 59 60 59 58 56 57 61 62 63 64 66 66 65 65
55 55 55 57 59 53 54 52 52 52 51 51 53 54 53 53 54 54 55 54 55 54 55 56 56 57 56 55 56 56 57 57 58 59 60 59 59 59 60 62 63 63 63 61 61 61 63 62 61 59 56 57 56 56 55 59 60 64 66 67 65 66
56 55 55 58 55 55 56 54 54 54 55 55 55 52 53 52 52 56 56 55 54 53 54 55 55 56 57 55 55 55 56 57 57 57 58 58 58 58 59 60 61 62 62 61 61 62 62 63 62 63 59 56 55 54 55 58 58 60 62 64 65 67
55 54 55 55 54 56 57 55 54 53 53 51 53 52 51 52 52 53 54 53 53 53 54 55 54 55 57 57 55 55 56 56 56 57 57 56 57 58 58 58 59 61 62 63 62 61 61 62 63 63 62 61 59 56 56 58 59 56 60 62 64 66
56 55 55 54 54 57 54 55 56 56 55 54 54 51 47 48 53 51 51 53 53 52 53 55 55 55 55 56 55 55 55 56 56 56 58 56 56 56 57 58 58 58 59 60 62 59 60 61 62 62 62 62 61 60 61 58 55 56 57 60 62 62
56 57 55 55 54 56 56 54 54 53 53 52 54 55 50 49 49 51 51 52 52 52 53 54 55 55 55 56 55 54 55 55 56 56 57 56 55 56 56 57 58 57 57 58 59 59 59 59 59 59 61 61 60 61 62 62 61 58 56 55 59 65
55 56 54 54 55 55 57 55 55 54 53 53 53 52 52 54 51 51 51 50 52 52 52 53 54 55 54 56 56 54 54 54 54 55 56 55 55 55 55 55 55 55 55 56 57 58 57 57 58 57 59 59 61 61 61 61 61 61 57 56 57 59
55 55 55 54 55 55 55 56 53 53 54 52 52 50 51 51 50 50 52 50 51 52 53 53 53 53 54 54 54 54 53 54 54 55 55 53 54 54 54 54 54 54 55 55 55 55 55 55 56 56 57 58 57 57 58 59 60 59 60 59 56 57
56 55 54 54 55 55 54 55 55 54 54 52 50 51 51 50 49 50 52 50 51 51 51 52 53 52 53 53 54 55 53 53 54 55 54 53 53 53 53 53 53 54 54 53 53 54 54 54 55 54 55 55 55 56 56 56 56 57 58 57 57 57
54 54 54 55 54 55 55 55 55 54 54 53 52 53 53 52 51 52 51 51 49 50 51 51 51 51 52 52 53 52 53 52 53 52 52 53 53 53 53 53 53 53 53 53 53 53 52 52 53 53 53 54 54 56 56 55 57 57 57 57 57 56
55 54 54 54 54 54 54 55 55 54 54 54 53 54 54 53 52 52 50 50 50 52 50 52 51 52 51 51 52 50 51 52 52 53 52 52 52 52 52 52 52 52 52 51 52 52 51 51 51 52 52 53 54 54 54 55 56 56 56 58 58 55
56 54 54 54 54 54 54 55 55 55 54 54 53 53 53 54 52 53 52 52 52 53 52 53 51 52 52 51 52 53 52 51 51 52 52 51 51 52 52 52 51 51 51 51 51 51 51 51 51 51 52 51 52 53 53 54 54 54 53 54 54 54
56 54 54 54 54 54 55 54 54 54 54 54 54 54 53 54 53 52 51 52 52 51 53 52 53 52 51 51 51 50 51 51 50 50 51 51 51 51 51 52 52 51 51 51 50 51 50 51 51 51 51 51 52 52 52 53 53 53 54 53 53 53
57 56 55 55 55 55 55 55 54 54 54 54 55 54 54 54 52 53 52 53 52 51 52 51 51 52 51 51 50 51 51 50 50 50 50 50 50 51 50 50 50 50 50 52 50 50 50 50 50 50 51 51 51 50 52 53 53 53 53 53 53 54
56 56 55 56 55 56 55 54 54 54 53 53 54 53 54 52 52 52 52 52 53 52 51 51 51 52 51 50 50 50 50 49 49 50 50 50 50 49 49 50 50 49 49 49 51 50 50 50 50 50 50 50 51 51 51 52 52 52 53 53 53 54

ECMWFFLT2_sfc_temp_009.txt.gz
Temp
73 74 75 76 77 77 76 74 74 72 72 70 70 71 71 72 74 75 75 74 73 77 77 77 76 78 74 77 73 74 74 74 74 74 74 74 73 73 74 73 72 72 72 72 72 71 71 71 71 71 71 72 72 77 78 78 78 78 79 79 78 80
71 72 73 73 75 76 76 75 76 75 74 72 72 72 74 75 75 77 75 75 77 77 77 77 77 75 77 77 76 74 74 74 74 74 73 73 73 73 73 73 72 72 72 72 72 76 74 71 70 70 70 70 77 79 77 77 77 79 78 79 79 76
75 72 72 74 75 75 74 75 75 76 75 73 73 74 75 75 76 77 77 77 75 77 79 78 77 77 77 75 77 74 74 74 74 74 73 73 73 73 72 72 72 72 70 69 75 76 76 75 74 68 70 75 78 77 77 77 78 78 78 78 79 72
76 76 75 75 75 74 74 75 76 76 76 75 73 72 72 74 75 75 74 74 75 77 77 76 75 75 75 76 76 73 73 74 74 74 73 74 73 73 72 72 71 70 70 74 75 76 77 76 75 74 74 76 78 77 77 77 79 79 79 78 81 71
77 76 77 75 75 75 74 75 74 74 75 75 72 71 73 73 74 73 73 73 76 76 76 76 76 76 76 75 75 76 76 77 77 77 74 78 78 78 75 75 72 71 72 73 75 74 75 75 74 75 73 75 76 77 77 77 78 79 78 78 78 70
76 77 75 74 74 75 74 75 74 73 73 75 73 72 73 73 73 72 72 74 73 73 74 75 75 75 74 74 74 75 75 76 76 77 77 77 78 76 75 73 71 70 71 72 73 74 75 75 74 74 75 74 76 76 78 78 78 77 78 78 76 70
76 74 74 76 76 75 73 73 74 74 74 74 74 73 74 74 74 72 72 73 73 73 74 73 73 73 72 72 74 74 75 76 76 77 77 77 76 76 74 72 70 70 70 71 73 75 75 75 75 76 75 76 76 77 77 78 78 77 78 78 76 70
75 74 73 76 75 75 73 72 73 73 74 74 73 73 74 75 74 72 73 74 73 73 72 72 72 72 72 71 73 74 74 74 76 77 76 76 76 76 75 72 69 69 71 72 74 75 76 77 76 75 75 76 76 77 77 78 78 77 77 77 78 72
74 73 74 74 74 74 74 74 75 74 73 74 72 72 73 73 73 73 73 74 74 72 72 72 72 71 70 71 72 72 71 72 74 76 74 74 75 74 74 72 70 69 71 72 73 74 75 76 76 75 76 76 76 77 76 77 77 77 78 79 78 77
73 74 75 75 72 72 73 73 73 74 73 73 71 70 71 72 73 73 71 72 73 73 72 71 71 71 70 70 70 71 71 70 71 72 73 72 73 74 73 73 72 70 72 72 74 74 75 75 77 76 77 77 77 78 77 77 77 78 79 78 77 78
73 71 75 76 73 72 72 73 73 75 75 72 70 69 69 71 72 72 72 72 73 74 73 71 70 70 67 66 67 69 70 70 69 72 71 71 72 73 73 74 73 72 72 73 73 74 75 75 76 78 78 78 78 78 78 77 78 78 78 78 79 77
74 72 73 75 73 72 72 73 72 73 72 72 71 69 67 68 70 70 71 71 72 72 72 70 70 70 66 66 66 67 67 67 68 69 71 72 71 71 71 72 73 73 71 71 72 73 74 74 75 78 79 78 79 78 79 78 79 79 79 78 78 78
75 72 74 74 74 74 73 72 69 70 70 70 72 72 71 70 70 70 69 69 71 72 70 70 69 68 67 66 66 67 67 66 66 70 71 72 71 71 71 71 71 72 71 70 68 71 73 73 74 75 77 79 77 78 80 79 78 78 78 78 78 78
71 73 72 73 72 73 73 71 70 70 70 70 71 72 72 71 69 68 68 69 69 70 69 69 68 67 67 66 66 67 67 67 68 69 70 70 70 70 70 71 72 71 71 71 69 71 72 73 74 75 76 77 77 77 77 79 78 78 78 78 79 78
70 72 71 71 71 72 71 73 73 72 72 72 73 73 73 72 70 68 67 68 69 69 70 70 70 67 68 67 66 66 67 68 70 69 69 69 69 70 71 71 71 72 72 72 72 70 70 71 72 74 75 75 77 78 76 77 78 78 78 77 77 78
70 69 69 69 69 69 70 71 72 72 72 72 73 74 73 73 74 73 72 70 69 69 68 71 72 69 65 68 68 68 67 68 69 69 68 68 68 69 70 71 71 72 70 71 71 71 71 71 71 72 73 74 75 75 77 78 77 79 80 78 78 77
69 68 68 68 68 68 69 70 70 70 70 71 72 72 73 73 74 73 73 73 72 71 71 69 70 70 68 69 69 68 67 68 69 69 68 67 66 67 68 70 70 71 71 69 68 70 72 71 71 71 71 73 75 75 76 77 78 78 79 75 76 77
68 68 68 68 68 68 69 69 70 70 70 71 70 72 73 74 73 73 73 72 71 71 70 71 71 70 69 69 68 67 68 68 69 67 67 66 65 65 65 67 68 69 69 69 68 68 67 69 71 70 70 72 73 75 76 76 77 76 77 78 76 77
67 67 67 67 66 66 66 68 68 68 69 69 70 71 72 72 72 72 72 71 72 72 72 72 71 71 71 70 70 69 69 69 68 66 65 65 66 66 65 65 65 66 67 68 67 68 67 68 68 68 68 70 73 73 74 76 76 77 77 78 79 78
66 67 67 67 68 69 70 70 68 69 69 69 70 70 70 71 71 72 71 71 71 71 72 72 72 72 71 70 70 70 70 70 67 66 66 66 67 66 64 64 64 64 64 66 67 66 67 67 66 65 64 66 70 72 74 74 75 77 77 77 76 77
65 66 68 68 69 70 69 67 68 69 68 68 69 69 69 70 71 70 71 72 71 72 71 71 71 71 70 70 71 71 70 68 68 69 68 68 68 67 66 65 65 65 63 63 64 66 67 69 66 64 65 65 67 71 72 72 74 76 78 78 78 76
65 66 68 69 69 69 69 71 70 69 68 69 69 70 68 69 68 69 69 69 70 71 71 71 71 70 70 71 70 70 70 68 68 68 68 67 66 65 66 66 65 63 64 63 64 66 67 66 63 62 62 62 65 69 72 73 74 76 78 79 77 76
65 67 68 68 69 69 68 67 69 67 69 67 66 67 70 69 69 70 68 69 69 69 70 71 71 70 69 70 69 69 69 69 69 68 67 66 65 64 65 65 66 65 63 65 66 67 66 66 63 62 62 60 59 62 68 70 72 74 75 77 78 78
65 66 67 68 69 67 66 65 66 66 66 68 67 65 66 67 69 69 68 69 69 69 69 70 71 72 70 69 68 68 69 69 68 69 69 67 66 65 64 65 66 66 66 63 64 65 68 67 66 63 59 59 59 59 57 63 65 71 75 75 76 77
66 66 67 68 67 67 66 66 65 66 67 66 66 67 67 67 68 68 68 68 67 69 69 69 70 70 70 68 68 68 68 68 68 68 69 69 68 67 67 66 66 66 66 66 65 64 65 66 66 66 62 59 59 58 60 60 62 67 71 74 75 76
66 66 67 67 67 68 68 67 66 65 65 65 64 64 65 65 66 67 67 66 68 69 69 68 69 69 70 69 68 68 68 69 68 68 68 68 69 69 68 68 67 67 66 67 66 64 63 65 65 65 66 64 62 59 60 63 62 62 68 69 71 74
66 66 66 66 67 68 67 68 67 67 67 66 65 65 66 66 67 67 67 67 67 67 69 68 68 69 68 68 68 68 68 68 68 68 68 67 66 66 68 68 68 68 67 68 67 64 64 65 65 65 66 65 64 64 64 61 60 62 62 67 70 70
66 66 66 66 67 68 68 67 66 66 66 66 66 66 65 65 66 67 67 66 67 67 68 69 68 68 68 68 68 67 67 67 67 68 68 67 66 67 67 67 66 66 67 67 66 64 63 65 64 63 64 64 65 65 64 64 64 62 60 60 64 72
65 66 66 65 66 68 69 68 67 67 65 66 65 65 66 66 66 66 65 66 66 67 67 67 68 67 67 68 67 67 67 67 66 66 68 67 66 66 65 64 64 64 64 64 65 64 64 63 64 62 64 64 65 66 65 65 65 64 61 60 62 65
65 66 66 65 66 67 68 67 67 66 66 65 65 64 65 65 65 65 65 65 66 66 67 66 66 67 67 68 67 67 66 65 65 65 66 66 65 64 64 63 63 63 63 62 63 62 62 63 64 63 63 63 63 64 66 65 64 64 64 62 58 61
65 66 65 65 66 66 67 67 67 67 67 65 64 64 63 63 64 64 65 65 66 66 67 66 66 65 65 66 65 66 65 65 65 65 65 65 64 65 64 63 63 63 62 62 62 62 61 61 62 62 62 63 62 61 60 60 59 61 61 62 63 64
65 65 65 65 65 66 66 66 67 67 67 67 65 64 64 63 64 64 65 64 65 65 65 65 65 65 64 65 65 64 64 64 64 64 64 64 64 64 64 64 63 63 62 62 62 61 60 60 60 60 60 61 61 62 62 60 60 59 59 60 61 62
65 65 64 65 65 65 65 66 66 66 67 67 66 66 66 65 65 65 65 65 64 65 65 64 65 65 64 64 65 64 65 64 64 64 64 64 63 64 63 63 62 61 61 61 61 60 60 58 59 59 59 60 62 62 62 62 62 61 61 61 62 60
65 65 65 64 65 65 65 66 66 66 66 66 65 65 66 66 65 66 66 65 65 66 65 65 65 65 65 65 65 65 65 64 64 64 64 63 63 64 64 64 62 61 61 61 61 60 60 59 59 59 59 59 59 60 61 61 61 62 60 60 60 59
65 65 64 64 64 64 65 65 66 66 66 67 66 66 67 67 66 65 65 66 66 66 66 66 66 66 65 65 64 64 64 63 63 63 63 63 63 63 63 63 63 61 61 61 61 60 60 59 59 59 58 59 59 60 60 61 60 60 61 61 60 59
65 65 64 64 64 65 65 65 65 65 65 65 66 67 66 66 66 65 65 66 66 66 67 67 67 65 64 65 64 64 64 64 64 63 64 64 64 64 63 62 62 61 60 62 60 60 60 60 58 58 58 59 59 59 59 60 61 60 61 61 61 60
65 65 64 64 64 64 64 64 64 64 65 64 65 65 65 64 64 64 65 65 66 66 66 66 65 65 64 65 65 64 64 63 63 63 63 63 63 63 63 62 61 60 60 61 61 60 60 59 59 59 59 57 59 59 59 59 59 60 60 60 60 61

ECMWFFLT2_sfc_temp_015.txt.gz
Temp
78 78 80 79 78 78 77 73 72 72 72 73 73 74 73 72 72 73 74 73 73 71 75 77 74 77 74 77 74 74 75 74 75 75 75 75 74 74 74 74 73 73 73 73 73 72 72 72 72 72 73 73 73 76 81 85 85 86 87 86 83 79
78 80 79 78 78 77 77 75 78 76 76 76 74 74 75 77 76 79 74 75 74 75 75 74 74 74 77 77 75 74 75 75 75 74 74 74 74 73 74 73 73 73 72 73 72 75 75 73 71 72 72 72 75 80 83 85 84 86 87 86 80 76
79 79 79 80 79 78 78 77 79 78 78 76 76 76 78 77 78 77 78 79 74 73 77 74 76 77 76 74 75 74 74 75 74 74 73 74 74 73 73 73 73 73 72 71 75 78 79 80 78 73 73 75 78 83 82 84 83 86 86 84 80 74
88 78 76 77 76 77 78 78 79 78 77 76 76 76 77 76 78 77 75 74 72 76 77 74 75 74 74 75 76 74 74 74 74 74 74 75 74 74 73 72 73 73 73 77 80 80 81 82 80 79 80 81 82 83 82 82 84 86 86 84 80 73
91 88 80 73 74 76 77 77 78 79 78 78 79 76 78 76 77 78 80 78 79 75 75 76 74 74 76 77 78 77 77 78 77 78 74 78 76 77 75 77 76 75 79 80 82 81 80 80 81 82 82 83 84 84 84 84 84 87 87 79 76 73
91 91 87 85 78 73 77 74 73 74 75 76 77 77 79 78 77 76 77 79 78 74 74 75 76 76 75 75 76 77 77 79 79 77 77 79 79 75 78 79 78 78 79 80 79 79 79 77 81 82 82 82 82 82 84 86 86 84 86 79 76 73
91 89 88 90 89 82 73 74 72 71 73 72 72 73 74 75 75 75 77 77 73 73 72 73 75 75 74 73 74 76 77 76 79 78 79 80 78 78 79 79 78 79 80 80 81 82 79 79 79 82 83 85 84 84 84 85 84 83 85 80 76 72
91 89 87 90 88 87 86 81 74 73 75 72 71 72 72 75 76 74 77 78 73 71 72 71 73 73 74 72 72 75 76 76 79 80 74 80 80 79 80 79 78 81 81 81 82 82 81 81 80 79 83 83 84 84 84 85 84 85 85 81 78 73
90 89 88 88 87 88 87 85 84 80 78 79 78 75 71 73 75 76 76 78 78 73 71 74 73 73 73 71 69 73 77 75 76 74 71 72 76 77 80 81 80 81 80 81 82 82 84 83 80 80 81 83 83 84 83 83 83 84 85 82 79 75
89 90 88 88 85 85 84 84 85 83 83 79 80 76 79 76 77 76 77 78 78 78 75 74 75 75 71 72 72 74 75 75 77 70 71 70 73 77 78 80 81 80 82 81 82 82 82 83 82 80 82 83 83 83 83 82 82 84 84 83 80 76
90 86 89 88 86 84 84 84 86 83 83 82 79 81 81 79 78 78 75 77 77 77 77 76 76 75 78 77 75 76 73 74 72 70 71 70 75 78 80 81 80 80 80 81 82 83 82 81 84 85 83 85 85 84 84 83 85 85 84 82 82 77
88 85 85 88 84 84 84 86 85 84 81 82 80 81 82 82 79 79 78 80 74 76 76 77 76 75 73 72 73 72 74 74 75 71 71 70 77 79 81 82 80 78 76 71 79 81 81 80 82 84 85 85 86 85 85 84 84 86 85 84 84 81
87 83 84 84 85 84 84 85 83 83 81 81 81 81 81 81 80 76 76 80 79 77 77 78 75 74 73 73 69 69 73 72 74 75 73 73 77 78 78 78 77 78 75 74 75 78 82 79 80 82 84 86 85 86 86 86 83 83 84 84 84 83
84 84 83 85 83 85 83 83 84 84 83 81 80 80 81 80 80 79 78 79 79 78 78 78 78 74 75 73 74 73 71 69 72 72 71 73 75 77 75 75 75 73 74 74 73 75 76 78 80 82 81 83 83 82 85 87 85 84 84 85 85 83
82 83 82 82 83 82 83 85 85 84 82 82 82 80 78 79 79 80 78 79 76 76 78 79 77 73 70 72 73 72 74 71 71 73 74 73 73 75 76 75 75 74 74 75 76 76 77 77 79 80 80 80 81 83 81 83 86 85 85 83 83 84
80 80 81 80 81 81 81 82 83 82 82 82 83 83 80 79 80 75 78 76 77 78 78 78 78 79 73 74 72 72 72 69 71 71 71 71 70 73 76 75 75 77 74 76 77 76 76 76 77 78 79 78 79 79 80 82 82 84 86 84 84 83
79 80 80 80 80 80 81 82 82 81 82 82 83 83 83 81 80 81 78 76 77 77 77 77 77 76 75 73 73 70 76 74 71 68 70 68 68 72 75 76 73 75 77 75 78 78 77 75 74 75 78 79 78 78 78 79 80 81 85 83 83 85
80 80 79 79 79 80 81 81 82 82 81 82 82 83 84 84 82 81 81 77 77 77 75 76 75 76 74 72 71 71 74 75 75 72 67 66 67 68 66 72 73 72 76 76 78 79 77 76 75 74 73 75 75 78 78 78 80 80 81 82 82 83
79 79 78 79 79 79 79 80 80 80 80 80 81 81 82 81 80 80 79 79 79 78 75 73 73 74 73 73 72 69 73 73 75 74 72 69 69 68 67 73 71 73 75 76 66 67 72 72 73 74 73 73 73 75 78 79 77 79 81 81 83 83
79 79 79 78 79 80 80 80 79 80 80 80 81 80 80 81 80 79 79 79 79 78 80 79 78 78 77 73 70 71 71 72 73 74 74 71 69 68 66 67 72 71 71 73 72 71 69 70 71 70 67 69 71 72 75 77 78 78 78 80 80 82
78 78 78 79 79 80 79 79 79 79 78 78 79 78 79 79 79 79 79 80 80 80 79 79 80 79 77 77 77 73 72 72 74 73 71 70 69 69 69 69 66 65 68 71 72 72 74 74 70 69 69 68 67 70 70 72 75 77 78 78 80 81
78 78 79 79 80 80 80 81 78 79 80 80 80 80 78 78 77 77 77 77 77 78 78 78 78 78 78 79 78 77 75 74 73 71 71 70 69 68 68 66 66 64 69 71 69 72 69 70 64 66 64 64 67 67 70 71 73 77 77 75 77 78
78 78 79 79 80 79 80 79 80 79 81 80 80 79 80 79 79 78 76 77 77 77 77 78 77 77 77 78 78 77 76 76 76 75 71 68 68 68 68 65 66 65 68 67 68 67 65 67 65 64 63 64 63 62 65 67 73 75 75 75 75 77
78 79 79 79 80 79 79 79 79 79 79 79 77 77 77 77 77 77 76 77 77 76 77 78 79 79 79 78 77 77 77 76 76 75 73 69 71 69 71 68 66 67 67 63 64 65 66 66 63 63 61 62 61 62 60 63 65 70 76 73 72 72
78 78 79 78 79 78 77 77 77 77 77 75 77 77 76 76 76 76 76 75 75 77 77 77 77 78 79 77 78 77 77 76 75 75 76 74 71 73 71 71 72 69 66 65 63 65 67 67 65 66 64 61 61 59 60 61 63 65 69 71 70 70
79 79 78 78 78 77 76 75 74 73 72 73 72 73 73 73 74 75 75 75 77 77 76 76 77 77 78 77 76 77 77 78 75 75 75 76 77 76 75 72 74 73 65 67 67 63 62 65 65 65 66 65 64 61 60 61 61 58 66 68 68 68
79 79 78 78 77 77 76 76 75 75 75 74 73 74 76 76 75 76 76 75 75 75 76 75 75 76 76 76 76 76 76 77 78 76 76 75 74 75 78 78 77 75 74 71 70 67 65 64 65 66 67 67 67 66 65 61 60 60 58 63 65 63
79 79 78 77 77 77 76 76 75 75 76 76 75 73 74 75 76 76 75 75 75 75 76 77 76 77 76 76 76 75 76 76 77 78 78 77 75 76 75 76 73 74 75 74 72 67 66 67 65 63 67 66 66 67 69 71 70 66 61 58 60 64
78 78 78 77 76 77 77 76 75 76 75 77 76 75 76 76 76 75 74 75 75 76 75 76 76 75 76 76 76 75 75 75 75 76 78 77 75 75 73 72 72 72 72 72 72 72 72 69 69 67 68 68 69 69 69 68 71 71 60 62 60 60
78 78 77 76 76 76 77 76 75 76 75 76 76 76 77 75 74 74 73 73 74 74 74 74 74 76 75 76 75 75 75 74 74 75 75 74 73 73 72 72 72 71 72 71 72 71 70 71 72 71 71 70 68 70 70 70 66 66 69 66 62 65
78 78 77 76 76 76 77 77 76 76 76 75 75 75 74 73 74 73 73 73 74 74 74 74 74 73 74 75 74 75 74 74 74 74 75 75 74 74 73 72 72 72 71 71 71 70 70 70 71 71 71 72 71 69 68 67 67 68 67 66 67 68
77 77 77 77 76 76 77 76 77 76 76 76 75 74 73 73 73 73 73 72 74 74 73 73 73 73 73 73 73 73 73 73 73 73 73 74 74 74 74 74 73 72 71 71 71 71 70 69 70 70 70 71 70 70 70 69 69 68 67 67 67 67
76 77 76 77 76 76 76 76 76 76 76 76 75 75 75 74 74 74 74 74 73 73 73 72 72 72 72 72 73 72 72 73 72 72 73 74 73 73 74 73 72 71 71 70 70 69 69 67 68 68 69 70 72 71 70 70 70 69 68 68 67 66
76 77 77 76 76 75 76 76 77 77 76 76 75 75 75 75 75 76 76 75 74 74 73 72 72 72 72 73 73 73 73 73 73 73 72 72 72 73 74 75 72 71 71 70 70 69 69 68 68 68 69 70 69 71 70 70 69 68 68 67 67 66
76 76 77 76 76 75 76 76 77 77 77 77 76 76 77 77 75 76 76 75 75 76 75 74 74 73 73 73 73 73 73 72 72 72 72 72 72 72 72 73 72 71 71 71 70 69 68 68 67 67 67 68 69 70 69 71 70 69 70 69 67 67
77 76 77 76 76 76 76 77 77 76 76 77 77 77 77 78 77 76 76 76 75 76 76 75 75 74 73 73 72 72 72 72 72 72 72 72 72 73 72 71 71 70 69 71 69 69 69 69 67 67 67 68 70 70 70 70 70 70 69 68 67 68
77 78 77 76 76 76 76 76 76 76 77 76 77 76 76 77 76 76 76 76 76 76 76 76 75 74 73 74 73 72 72 72 71 71 72 72 72 72 71 71 70 69 69 71 70 69 69 69 68 68 68 67 68 70 70 69 70 69 68 68 68 68

ECMWFFLT2_sfc_temp_021.txt.gz
Temp
73 73 72 71 71 72 74 74 74 75 75 75 75 75 74 75 75 75 74 73 72 70 70 70 70 70 74 70 72 74 75 75 75 75 75 75 75 74 74 74 74 73 73 73 73 73 73 73 73 73 73 73 73 69 68 69 71 72 71 71 71 71
73 73 72 72 72 72 72 73 71 72 73 74 74 75 73 72 74 71 73 71 70 71 69 69 69 74 70 71 72 74 75 75 75 75 74 74 74 74 74 74 73 73 73 72 73 68 69 72 73 73 73 73 69 67 68 69 71 72 72 71 70 72
74 74 73 73 72 71 71 70 71 71 72 73 74 73 71 73 69 70 70 70 70 69 69 69 69 72 71 72 72 74 74 74 74 75 75 74 74 74 73 73 73 73 72 72 69 66 65 65 66 73 73 70 66 66 69 69 70 71 71 71 70 73
75 75 73 72 72 71 71 71 70 70 70 71 71 72 70 70 69 69 70 69 69 70 70 68 75 75 74 71 71 74 74 74 74 74 75 73 74 73 74 74 73 73 72 70 66 66 67 69 68 67 67 66 65 68 70 70 70 71 70 73 72 74
76 75 74 72 72 71 71 71 70 70 70 69 70 70 69 68 68 67 68 68 69 70 68 67 68 70 68 69 68 68 70 70 69 69 73 68 68 71 70 68 68 69 66 66 67 67 68 68 69 69 67 66 67 69 70 70 71 72 70 70 70 73
76 76 73 72 72 72 73 70 70 70 69 70 70 68 67 67 67 67 67 68 70 68 68 67 67 68 68 68 69 68 69 68 69 69 69 68 67 68 67 68 68 67 66 67 67 68 68 68 67 67 66 65 67 69 70 70 72 71 70 69 71 73
76 75 74 74 73 72 71 71 70 70 69 69 69 68 67 67 67 66 67 68 67 67 67 66 67 67 68 68 67 67 66 66 66 67 68 67 67 68 67 65 66 67 67 68 69 70 69 69 67 69 67 68 69 70 71 71 70 70 69 69 71 74
76 75 74 75 73 72 71 71 71 72 70 71 70 69 68 67 67 66 67 67 68 67 67 66 67 67 68 67 66 66 66 66 66 66 66 67 66 66 66 66 65 65 67 69 70 72 71 72 69 68 69 68 69 71 70 70 70 70 69 68 70 72
76 75 74 74 73 72 71 70 70 69 69 72 68 69 70 68 67 67 68 68 69 66 66 67 67 67 67 66 65 65 65 65 65 66 66 66 65 65 65 66 66 66 67 68 68 70 71 71 69 67 68 69 69 70 70 71 70 71 70 68 69 71
76 76 74 74 72 71 70 69 69 69 69 70 67 68 69 67 67 67 67 67 68 67 66 65 66 67 66 66 66 65 65 65 65 65 66 65 65 65 65 65 66 67 69 69 69 70 68 71 71 69 69 69 69 70 68 71 71 71 70 69 68 69
77 76 75 74 72 72 71 70 69 68 68 67 67 68 67 67 67 67 67 67 68 69 68 67 67 67 66 66 65 65 64 64 65 65 66 66 66 66 66 66 67 67 68 67 67 67 68 68 70 71 71 72 72 70 70 71 72 71 71 69 68 68
76 75 74 74 73 72 71 71 69 67 66 67 68 66 66 67 69 67 67 67 67 67 68 66 66 67 66 65 64 64 64 64 64 64 65 66 66 67 67 68 69 69 67 66 66 66 67 66 67 71 72 71 71 72 70 70 72 72 72 70 69 69
75 73 74 74 73 71 71 71 68 67 67 68 66 66 65 65 66 67 67 67 66 66 65 65 65 65 66 64 64 64 64 63 65 65 66 66 67 67 67 68 68 67 65 64 65 65 68 66 66 68 69 73 73 72 71 72 72 72 71 71 69 69
74 74 72 72 71 72 72 70 68 67 68 66 65 65 65 64 66 66 66 66 66 66 66 66 67 66 65 64 64 64 64 64 64 64 65 66 66 66 66 66 66 66 67 64 63 64 64 66 67 68 69 71 71 70 72 73 71 71 71 71 70 69
71 70 71 70 72 72 71 71 70 68 66 65 65 64 65 65 66 66 66 66 66 66 66 65 66 65 65 64 64 64 65 65 66 65 65 65 66 66 66 66 65 65 63 62 63 65 66 64 65 67 67 66 68 71 71 72 72 72 71 70 70 69
70 70 69 70 68 69 70 69 70 70 66 66 66 65 64 65 65 65 66 65 66 66 66 65 66 66 64 64 65 65 65 65 65 64 64 64 64 65 66 66 65 65 63 63 65 64 65 66 65 65 64 64 66 68 68 69 70 70 73 71 71 69
69 69 68 69 69 68 69 68 67 68 69 67 66 66 65 65 66 66 65 65 66 66 64 66 66 65 64 63 63 63 65 65 66 65 64 63 63 64 64 66 64 64 63 62 63 64 64 64 65 64 63 63 64 65 65 67 68 69 72 70 71 72
69 69 68 67 67 67 68 68 68 69 70 70 69 67 67 68 66 66 66 65 65 65 65 65 65 64 64 64 64 64 64 65 65 64 63 63 63 63 63 63 63 63 64 63 62 61 61 62 64 64 63 63 63 63 63 65 66 67 68 70 69 70
69 68 66 67 68 67 66 65 65 67 67 68 68 68 68 67 67 67 66 66 66 66 66 65 66 65 63 64 64 64 64 64 64 63 63 61 61 62 63 63 62 61 62 63 62 61 62 60 62 62 63 64 63 64 63 64 65 64 66 68 69 71
67 67 67 66 67 65 65 65 64 65 66 66 67 67 66 66 66 66 67 66 67 67 68 65 66 65 64 64 64 63 64 64 63 63 62 61 61 62 62 61 61 61 60 61 62 63 62 61 61 61 62 63 64 65 66 65 64 64 65 67 68 68
66 67 67 66 65 64 65 64 63 65 65 64 66 65 65 65 65 64 66 68 67 66 67 67 67 66 65 67 64 64 64 63 63 62 61 61 61 62 63 62 62 60 60 59 60 62 62 62 60 60 61 62 63 66 65 65 65 65 66 66 68 67
65 66 66 66 66 65 64 65 64 63 63 63 65 64 62 64 66 66 66 65 64 65 66 66 66 65 65 66 64 64 63 62 62 62 62 62 62 64 64 63 63 61 62 60 59 61 62 61 58 58 58 58 60 62 63 63 62 64 64 66 67 67
66 66 65 65 64 65 64 63 64 63 65 62 64 65 65 65 65 66 64 65 65 64 64 65 66 65 66 66 65 64 64 63 63 63 63 61 61 63 63 62 63 62 60 61 60 62 61 60 58 59 58 57 56 56 59 60 62 62 63 62 65 67
67 65 64 66 67 65 65 65 66 66 65 67 65 65 64 64 65 66 65 65 64 63 64 64 65 66 65 64 64 65 64 63 64 64 63 61 61 62 61 62 63 63 62 60 60 59 62 61 60 58 55 55 56 56 53 56 58 61 64 64 65 65
66 65 64 66 66 66 66 65 65 64 65 63 63 62 62 61 63 64 64 63 63 64 65 65 64 65 65 64 63 63 63 64 63 63 64 62 62 62 61 61 61 62 62 60 59 60 61 61 60 61 58 56 54 53 54 55 58 59 62 64 64 65
64 64 65 65 66 65 65 64 62 62 60 58 58 59 58 59 60 60 61 61 64 65 65 63 63 64 65 64 63 63 63 64 63 63 63 62 63 63 62 61 61 60 60 60 60 59 59 61 62 62 61 59 58 54 55 57 57 53 60 62 63 64
65 65 65 65 65 65 63 62 62 62 61 61 60 59 59 60 61 61 63 63 63 63 64 64 63 63 63 63 63 64 63 63 63 64 65 64 62 61 64 65 63 61 61 61 60 58 58 59 61 61 61 61 61 61 60 57 54 56 55 59 61 60
65 65 65 65 65 65 63 61 62 62 62 60 61 61 62 61 63 63 62 62 62 61 63 63 63 62 63 65 64 63 63 63 64 65 65 63 62 62 63 63 62 61 61 61 60 59 58 59 57 58 60 60 60 61 62 60 59 56 53 53 54 58
66 65 65 65 65 64 64 63 63 63 60 62 63 62 62 63 62 62 61 61 62 62 62 62 63 62 62 63 64 62 62 62 61 63 64 63 62 62 61 61 60 60 59 59 59 59 59 58 59 58 59 58 59 59 59 59 59 57 54 52 53 56
66 65 66 65 65 64 64 64 63 61 62 62 63 61 61 61 60 61 61 60 60 61 60 60 61 62 62 62 61 62 62 61 60 61 62 61 61 61 60 60 59 59 59 59 59 58 58 58 58 59 60 60 58 57 58 57 57 56 57 57 54 55
67 67 66 66 65 65 64 64 63 63 63 62 62 61 61 60 59 60 61 60 60 60 60 60 60 61 61 61 60 61 60 60 61 61 61 61 59 60 59 59 60 59 59 58 58 57 58 57 58 58 59 57 58 58 57 55 55 57 56 55 54 54
65 67 66 66 64 65 64 63 63 64 64 63 62 62 61 60 60 60 60 59 59 60 59 60 59 59 59 59 59 59 60 60 60 60 60 59 60 61 61 61 59 59 59 58 58 58 57 56 56 56 57 57 56 58 57 57 57 56 56 56 55 54
66 67 67 66 64 65 64 64 63 64 64 63 63 62 62 60 60 60 60 59 59 59 58 59 58 60 58 58 58 59 60 59 59 59 58 60 59 60 60 59 60 58 58 57 56 57 55 55 56 55 55 56 57 58 57 57 58 57 56 56 55 52
64 67 67 66 65 64 64 63 62 64 64 64 63 63 62 61 61 61 61 60 60 59 59 58 58 58 59 59 58 59 59 58 58 58 59 59 58 59 59 59 58 57 57 56 56 55 55 55 55 55 56 56 56 57 55 57 57 56 55 55 53 52
61 63 65 65 63 63 64 62 61 64 64 64 63 63 62 62 62 62 61 61 60 60 60 59 59 60 59 59 59 60 59 58 58 58 57 58 61 59 59 60 58 57 57 58 58 57 55 56 57 56 55 55 57 55 55 56 55 57 56 55 55 54
60 60 63 64 62 62 62 62 62 62 63 63 64 63 62 62 62 62 62 62 61 60 61 60 60 60 59 59 59 59 59 58 58 58 58 58 58 58 58 58 57 56 57 60 57 56 55 55 54 54 54 54 56 55 56 56 57 55 55 55 55 54
60 61 62 61 61 62 62 63 62 61 62 62 63 63 62 62 61 62 62 62 61 61 61 61 61 61 59 58 59 59 58 58 58 57 58 57 58 58 57 58 56 55 55 56 56 55 54 55 54 54 54 54 54 55 55 54 55 56 56 54 55 54

ECMWFFLT2_sfc_temp_024.txt.gz
Temp
71 71 71 72 72 72 74 75 74 75 75 75 74 74 74 74 74 74 74 73 72 69 69 70 70 70 73 70 72 74 75 75 75 74 74 74 74 74 73 73 73 72 72 73 72 72 72 72 73 72 72 72 72 65 66 68 70 69 68 67 68 67
71 71 71 71 72 72 73 73 72 72 73 73 74 75 73 72 74 71 73 70 68 70 68 67 68 73 69 71 72 74 75 75 75 75 74 74 74 73 74 73 73 72 72 72 73 64 65 69 71 72 72 73 65 64 66 68 69 68 68 67 67 69
71 71 70 70 71 71 71 70 70 71 72 74 74 73 70 72 68 69 68 69 69 68 67 68 68 71 70 72 71 74 74 75 75 74 74 74 73 73 73 73 73 72 72 71 67 63 63 62 63 70 70 66 63 64 66 66 69 68 68 68 66 72
71 70 70 69 69 69 69 69 69 70 70 70 70 70 68 68 68 68 69 68 67 68 67 66 75 76 75 70 70 74 74 74 74 74 74 73 73 73 73 73 73 73 70 68 63 64 64 62 63 64 64 63 63 64 66 66 68 68 68 70 68 73
73 71 70 69 69 68 68 68 68 68 69 68 68 67 67 66 66 67 68 68 68 68 67 66 66 67 66 67 67 67 68 68 67 68 71 67 68 70 69 67 67 67 63 64 64 63 63 64 64 65 64 64 65 65 66 66 68 68 67 69 68 73
73 73 71 69 69 70 70 67 67 68 68 68 68 66 66 66 66 66 67 68 68 66 66 66 66 65 67 66 66 66 66 66 66 67 68 66 66 65 65 66 65 65 64 63 64 63 63 64 65 64 64 63 64 65 66 66 69 69 68 67 69 73
73 72 72 72 70 70 68 68 68 68 68 67 67 66 65 65 65 65 66 68 66 65 65 65 65 65 65 66 66 65 64 65 65 65 67 66 65 65 65 65 65 65 64 64 65 64 64 64 63 65 64 65 64 64 65 67 68 67 67 67 70 73
73 72 71 72 71 70 69 69 69 71 69 69 68 66 65 65 65 65 66 67 67 65 65 64 65 65 65 65 65 65 64 64 65 65 66 66 65 65 65 64 64 64 65 66 66 66 66 67 65 64 65 64 65 64 65 66 67 67 66 66 68 72
73 73 71 72 71 70 69 69 69 68 67 71 67 67 66 66 65 66 66 67 68 65 64 65 65 65 65 64 64 64 64 64 64 65 65 64 65 65 65 64 64 65 64 65 65 65 66 67 66 66 65 65 65 65 65 66 66 67 67 66 67 70
74 73 72 72 70 69 69 69 68 68 68 70 66 67 67 65 65 66 65 66 66 65 65 65 65 64 65 64 64 64 64 64 64 64 64 64 64 63 64 64 64 65 66 65 66 67 66 66 67 67 65 66 65 66 66 66 66 67 67 67 67 68
74 73 73 72 70 69 69 68 68 68 68 67 66 67 66 66 66 66 66 66 66 66 66 65 65 64 64 64 64 63 63 63 63 64 65 64 64 64 64 64 65 64 64 64 64 64 64 65 66 68 66 67 66 64 66 67 67 67 67 67 66 67
74 73 72 72 71 69 69 69 68 67 66 66 67 65 65 66 67 65 66 66 66 66 66 64 64 64 64 64 63 63 63 63 63 64 65 65 64 65 64 65 65 65 64 64 63 63 63 63 64 66 67 68 67 67 66 66 67 67 68 67 67 67
73 71 71 70 70 69 68 69 67 66 66 67 66 65 64 65 65 65 65 65 65 65 64 63 63 64 65 63 63 63 63 63 63 64 63 64 64 64 64 64 64 66 63 61 62 62 65 62 64 65 64 67 67 68 67 67 67 67 67 67 67 67
72 71 70 70 68 68 68 67 67 66 67 66 65 64 65 64 65 65 65 65 64 65 64 64 64 63 63 63 63 62 62 62 63 63 63 64 64 64 64 63 63 63 65 61 62 62 61 62 62 63 64 66 66 66 66 67 67 66 67 66 67 66
71 69 70 69 69 68 67 67 66 65 65 64 63 63 63 64 64 64 64 64 64 65 64 64 64 63 63 62 62 62 62 63 63 63 64 63 63 63 63 63 62 63 61 60 61 62 62 61 62 63 63 64 65 66 65 66 66 67 67 67 68 67
69 67 67 68 68 67 67 66 66 66 63 63 63 63 62 64 64 63 63 63 63 64 64 63 64 63 63 63 63 62 63 63 64 63 63 63 63 62 62 63 63 63 61 61 62 61 62 61 62 62 61 62 63 64 64 65 66 67 68 68 68 67
67 67 67 67 67 67 66 66 65 64 63 63 63 63 63 63 64 64 63 63 63 63 62 62 63 63 63 63 62 62 63 64 64 63 62 62 62 63 63 64 62 62 61 60 61 61 61 60 61 61 61 61 62 62 63 64 64 66 69 65 66 67
67 67 67 66 66 65 64 64 64 64 65 64 63 63 63 64 64 63 63 63 63 63 63 62 64 63 62 62 62 62 62 64 64 63 62 62 61 62 62 63 61 60 61 61 60 59 60 59 62 62 60 61 61 61 62 62 64 65 64 65 64 66
67 66 65 65 65 64 63 62 62 63 63 63 63 62 63 63 63 63 62 62 63 62 63 62 63 63 61 63 62 62 62 63 63 63 63 61 60 62 62 61 61 59 61 61 60 59 60 59 60 60 61 61 62 62 61 62 62 62 62 64 66 67
65 65 64 64 64 63 63 63 62 62 62 61 61 62 61 62 62 62 63 63 62 62 63 62 62 62 61 62 61 61 62 62 62 62 61 61 60 61 61 60 59 60 60 60 61 61 60 60 59 59 60 60 61 62 63 62 61 61 62 63 65 65
63 64 65 64 61 61 62 61 60 61 60 59 62 60 61 61 61 62 63 64 63 63 62 62 64 62 61 64 62 61 61 61 62 62 61 60 60 62 62 61 60 59 58 57 58 59 59 59 58 58 58 59 60 62 63 63 62 62 61 63 65 65
63 63 63 63 63 61 60 62 62 61 60 59 61 60 60 60 61 62 60 61 62 62 62 61 63 61 62 62 62 62 61 61 61 61 61 60 60 63 62 62 61 58 58 58 59 61 61 57 56 56 55 55 56 59 60 60 60 61 61 62 62 64
63 63 62 62 62 62 59 60 62 59 62 59 60 60 60 61 62 62 60 60 60 60 60 61 61 62 61 61 62 61 61 60 60 62 60 59 59 60 60 60 60 59 58 59 59 61 60 58 55 57 56 56 54 55 56 57 59 60 61 61 62 63
63 62 61 63 63 60 62 61 62 61 60 61 61 60 59 59 60 61 61 61 61 59 59 60 61 62 61 61 61 60 60 60 60 60 60 58 58 59 59 59 59 59 59 58 59 59 60 60 59 57 56 55 55 54 52 53 55 59 62 62 62 63
63 61 60 62 62 63 63 61 61 61 62 61 61 59 58 57 58 60 61 61 60 59 61 60 60 61 61 59 59 60 60 59 59 59 60 59 59 59 59 59 60 60 61 59 59 60 60 61 61 60 57 54 51 51 52 53 55 57 60 61 61 62
61 60 61 61 63 64 64 62 61 60 58 57 56 56 56 56 57 58 59 60 60 60 61 61 61 61 62 61 59 59 59 60 59 60 60 59 59 59 58 59 59 59 59 59 60 60 59 61 60 61 60 58 55 53 52 56 55 53 56 59 60 61
61 61 62 61 63 64 62 62 62 61 60 59 57 56 56 56 58 58 58 59 58 59 60 61 60 60 60 60 59 59 60 60 60 59 60 59 59 58 60 60 59 59 58 58 58 56 59 60 60 60 60 60 60 60 58 56 54 54 54 55 57 58
62 63 62 62 63 64 63 60 60 60 60 58 59 58 58 57 57 58 58 58 57 57 58 59 60 59 60 61 61 60 60 60 60 61 61 59 58 59 60 60 59 58 58 58 57 58 57 59 58 57 58 59 59 60 60 58 56 55 52 53 55 56
62 63 61 62 63 63 63 61 61 60 58 58 59 59 59 59 58 57 56 57 57 57 57 57 58 59 59 61 61 59 59 59 59 60 61 60 59 59 58 57 57 57 56 56 57 58 58 57 56 56 58 57 58 58 58 57 57 56 54 52 52 53
62 63 62 62 63 62 63 62 61 59 59 58 60 59 58 58 57 56 56 55 55 56 56 56 56 57 58 59 58 58 58 59 58 59 60 58 58 58 57 56 56 56 56 56 56 56 55 55 55 56 57 57 57 58 56 55 54 54 55 55 54 53
62 62 62 62 63 63 63 62 62 61 60 59 59 59 58 57 56 56 56 54 55 55 55 56 56 56 56 57 57 58 57 57 58 59 58 57 56 56 56 56 56 56 55 55 54 54 55 54 55 55 56 55 55 56 55 53 54 54 53 52 51 52
61 62 62 62 63 63 62 61 62 62 61 60 60 60 59 58 57 56 55 55 54 55 54 55 55 55 55 55 57 56 57 56 56 56 57 57 57 57 56 56 55 55 55 54 54 55 54 54 54 54 54 54 54 55 54 54 54 53 53 53 52 51
61 61 62 61 62 63 62 61 62 62 61 61 60 60 59 58 57 57 56 55 54 54 54 57 55 55 55 55 56 58 58 56 56 56 55 56 55 56 56 55 55 54 54 53 52 53 53 51 52 53 52 52 54 54 54 53 54 53 52 53 51 49
60 60 61 60 60 60 60 61 62 62 61 61 59 59 58 59 57 57 57 56 56 56 55 56 55 55 55 55 55 57 57 55 55 55 56 55 55 55 55 56 55 55 54 52 53 53 52 51 52 51 51 52 52 52 52 53 51 53 52 51 49 49
58 59 60 59 60 60 59 61 62 60 62 61 60 59 58 59 58 57 56 57 56 55 56 56 56 56 54 55 55 54 55 55 55 55 56 56 57 55 55 56 55 54 54 53 54 54 52 54 54 52 52 52 54 53 52 52 52 53 52 52 51 51
58 59 60 60 60 60 59 60 61 60 60 61 61 61 59 58 57 58 58 57 56 56 57 56 57 56 55 57 55 55 55 54 54 55 55 55 55 56 54 54 53 54 54 56 54 53 52 53 52 51 50 51 53 51 52 53 53 51 52 52 52 50
58 59 60 60 59 61 61 60 60 61 59 60 61 60 60 59 58 58 58 57 57 57 56 57 58 56 56 55 56 55 55 54 54 54 54 54 54 53 54 54 53 52 52 52 54 52 52 53 50 50 50 50 50 51 50 50 51 52 51 50 52 51

ECMWFFLT2_sfc_temp_027.txt.gz
Temp
72 72 72 71 72 72 74 74 74 74 74 74 74 74 74 74 74 74 74 73 72 70 68 69 70 69 74 70 72 74 75 75 74 74 74 74 73 73 73 73 72 72 72 72 71 71 71 71 71 72 72 71 70 65 66 67 67 67 66 66 67 64
71 72 71 71 72 72 73 73 71 72 72 73 74 74 73 72 74 71 74 71 68 70 67 66 67 73 68 70 72 74 75 74 74 74 74 73 73 73 73 72 72 72 72 71 72 63 62 67 69 71 71 69 63 62 64 66 66 66 66 65 65 66
72 71 71 71 71 72 71 70 70 70 72 73 74 72 70 71 68 68 68 68 68 66 66 68 68 70 69 72 70 74 74 74 73 74 74 73 73 73 73 72 72 72 71 71 63 60 60 60 60 69 68 63 61 63 63 65 65 66 66 65 64 70
71 71 70 70 70 70 70 69 69 69 70 70 69 69 68 68 67 67 67 66 66 67 66 66 73 74 74 70 69 74 74 74 73 73 74 72 73 73 73 73 72 72 68 65 61 62 62 60 61 60 61 61 61 63 63 65 65 65 65 68 65 71
70 70 70 70 70 69 69 69 68 68 69 69 68 67 67 66 67 67 67 67 66 67 65 64 65 67 67 66 65 66 68 67 67 67 71 66 67 68 68 66 65 65 63 63 62 61 61 62 61 62 62 62 62 62 63 65 65 64 65 67 66 71
69 69 69 69 69 71 70 69 68 68 68 68 67 66 66 66 66 66 66 67 67 65 64 64 64 64 65 65 65 65 65 65 66 66 67 66 65 65 64 64 63 63 62 61 62 61 61 62 62 61 62 62 62 62 62 63 65 65 65 65 67 72
69 68 68 70 69 70 68 69 68 68 68 68 66 65 65 65 65 65 66 67 66 64 64 63 64 63 63 64 64 64 64 64 64 65 66 65 64 64 64 63 63 63 62 62 62 62 61 62 61 62 63 63 62 62 62 65 65 65 65 65 68 72
69 69 68 69 68 68 67 67 68 70 68 69 67 65 64 64 65 65 66 66 67 64 64 63 63 63 63 63 63 64 63 63 64 64 64 65 64 63 63 62 62 63 63 63 64 64 62 64 63 62 63 63 61 61 62 64 66 67 66 65 67 71
70 69 69 69 68 68 67 67 68 68 67 70 65 65 65 65 65 65 66 66 67 64 63 63 62 63 62 62 63 62 63 63 63 63 63 63 64 63 63 63 63 63 62 63 63 63 64 65 63 63 62 63 63 61 61 64 64 65 66 65 66 69
71 70 70 70 68 67 67 67 67 67 67 69 65 65 65 64 64 65 64 65 66 65 64 63 63 62 63 62 62 62 62 62 62 63 63 63 63 63 63 63 63 63 64 63 63 64 64 64 65 64 62 63 63 62 62 63 64 64 65 65 66 67
72 72 70 69 68 67 68 67 68 67 67 67 66 66 65 64 64 64 64 65 65 65 65 64 64 63 62 62 61 61 61 61 62 63 63 62 62 63 63 63 63 63 62 61 63 62 63 62 62 65 63 64 63 62 63 63 64 65 65 66 66 66
72 71 70 69 69 68 68 68 68 67 66 66 67 64 64 64 66 64 64 64 65 64 65 63 63 62 63 62 62 61 61 61 62 63 65 64 63 63 62 63 63 63 62 62 62 61 62 61 62 64 64 65 64 63 62 64 64 65 65 65 65 66
71 70 68 68 68 67 67 68 67 66 66 67 66 65 64 64 64 64 64 64 64 64 63 63 62 63 65 62 62 61 61 61 61 63 64 65 65 62 63 63 62 63 61 60 61 60 62 60 62 62 63 65 64 64 64 65 64 65 64 65 64 64
69 68 68 67 67 66 66 66 65 65 67 65 64 64 64 63 65 64 64 63 63 64 63 63 63 62 63 62 62 62 61 61 62 63 63 64 63 62 62 62 61 62 63 60 60 59 59 61 61 61 62 63 63 62 64 65 63 64 64 64 64 64
69 68 68 67 67 66 65 66 64 64 64 63 63 63 63 63 63 62 63 63 62 64 63 63 63 62 62 62 62 61 61 62 62 62 63 63 63 63 62 62 61 61 59 58 59 61 60 60 61 62 62 62 63 63 63 64 64 64 64 64 64 64
68 66 66 66 65 66 65 64 64 65 63 63 62 63 63 63 63 62 63 62 62 64 63 63 64 62 62 61 61 61 61 61 62 62 62 61 61 61 61 61 61 61 60 60 61 60 60 61 60 61 61 61 62 63 62 62 63 64 64 64 64 64
66 66 65 65 64 64 63 63 63 63 62 61 61 61 62 62 63 63 62 62 62 64 62 64 63 62 61 61 61 61 62 62 62 61 61 61 61 62 61 62 60 60 59 59 60 60 60 59 60 60 60 60 61 62 62 62 62 63 65 63 63 65
66 66 65 65 64 63 63 62 61 61 64 61 60 61 61 62 62 61 61 61 62 63 63 62 63 62 61 62 62 62 62 63 61 60 61 62 62 61 60 61 60 60 61 61 59 59 59 59 61 61 59 60 59 60 60 61 62 64 62 62 62 64
66 64 64 64 63 61 60 60 60 61 60 60 60 60 61 61 60 61 60 61 62 62 62 61 62 63 61 62 61 62 62 62 61 61 61 60 61 61 61 60 60 60 61 61 60 59 59 59 58 58 60 60 60 60 60 61 61 61 61 62 63 65
63 63 62 62 62 60 60 60 60 59 60 60 59 61 58 59 58 59 61 61 62 61 62 61 61 61 61 62 61 62 62 62 62 62 60 59 59 60 60 60 59 60 59 60 61 61 60 59 57 58 58 57 59 60 60 60 59 60 61 63 63 62
62 63 63 62 61 61 59 58 58 58 58 57 59 58 58 58 58 58 60 61 61 60 60 61 61 61 60 64 61 60 62 61 60 61 61 60 61 61 61 61 59 58 58 56 59 61 60 58 58 57 56 55 58 61 62 60 60 60 61 61 62 62
62 62 62 62 62 61 60 61 59 57 56 57 58 59 58 57 58 59 58 59 59 59 59 59 61 59 60 61 60 59 60 61 61 60 61 60 60 62 62 60 59 58 57 56 58 61 60 58 55 54 53 53 53 55 59 58 60 61 62 62 62 63
62 62 60 62 62 60 57 59 59 56 59 56 56 57 57 58 59 58 56 56 57 57 57 58 59 60 59 60 60 60 61 61 61 62 61 59 59 60 60 59 59 58 58 59 60 61 58 56 55 58 55 55 52 53 56 56 57 60 61 61 61 62
62 61 60 62 62 59 60 58 59 58 56 56 58 58 56 56 57 58 58 58 58 56 57 57 57 60 60 59 59 59 58 59 59 61 60 59 59 59 59 60 60 58 58 58 58 58 59 58 55 55 55 53 53 51 50 53 53 57 61 62 61 62
61 61 60 61 60 60 60 58 58 59 59 59 58 55 56 56 56 59 58 58 57 56 58 58 57 58 60 59 57 58 58 58 58 59 59 58 59 59 57 57 59 59 58 58 58 58 60 60 58 59 56 54 50 50 50 53 53 57 59 61 61 62
59 59 60 59 60 61 61 59 58 58 56 54 54 54 54 55 56 56 57 57 56 56 57 57 56 57 58 59 58 58 57 58 58 59 59 57 57 58 58 59 60 61 60 60 60 59 59 60 59 59 57 56 55 52 54 55 55 54 57 59 60 62
61 60 59 59 61 62 59 60 60 59 58 57 55 53 52 53 55 56 54 55 55 56 56 58 56 56 57 58 58 57 57 57 57 57 59 57 56 56 58 60 60 60 61 60 59 58 60 60 60 59 58 58 59 59 59 55 53 52 54 56 57 58
60 60 60 60 60 62 61 58 57 56 57 55 56 56 54 54 54 55 54 54 55 55 55 56 57 56 57 58 58 57 57 58 58 58 59 57 56 56 58 58 57 56 57 57 57 58 58 60 58 57 58 56 57 59 59 57 55 56 52 53 55 56
60 59 58 60 60 60 61 59 59 57 56 56 56 56 55 55 54 54 54 53 54 54 54 55 55 57 56 58 59 57 57 57 57 57 59 57 56 56 55 54 54 54 54 54 55 56 58 58 57 57 57 57 58 57 56 55 55 55 52 51 52 52
58 58 58 58 60 58 59 60 58 58 57 55 56 54 55 53 53 53 53 52 53 54 54 55 54 54 55 56 56 57 57 57 56 57 57 55 55 55 54 53 52 53 53 54 53 54 54 53 54 55 57 57 57 57 54 53 53 53 54 54 53 53
58 58 58 57 58 58 58 60 59 58 58 57 56 56 55 53 53 53 53 53 53 53 53 54 54 54 54 55 55 56 56 55 56 58 56 55 54 53 52 52 53 53 53 53 53 53 54 53 53 53 54 55 54 55 54 53 54 52 51 51 50 51
57 57 57 58 58 58 58 59 61 59 58 58 57 57 56 55 53 52 51 52 53 53 53 53 53 54 54 54 55 54 54 54 55 54 53 54 54 54 53 53 52 53 52 51 52 53 52 52 52 52 52 52 52 53 53 53 52 52 53 52 51 51
58 58 59 59 59 58 57 58 59 59 58 58 57 57 56 54 52 53 51 51 52 52 53 54 54 54 53 53 55 54 54 54 54 55 53 53 52 53 54 53 54 53 52 52 51 52 51 49 50 51 49 49 50 52 51 49 51 51 50 49 50 47
60 61 61 61 60 58 58 58 58 59 59 59 58 57 56 56 54 53 53 52 52 52 53 53 52 53 53 53 54 54 54 53 52 52 53 53 53 52 53 53 52 52 52 50 51 51 50 49 49 48 49 51 50 50 49 49 48 50 48 49 47 48
61 60 60 60 59 59 58 58 59 58 59 60 60 59 57 56 54 53 52 52 51 52 52 51 52 53 53 53 52 52 53 53 52 53 53 54 55 53 53 53 52 52 51 50 51 51 50 51 52 50 49 49 51 50 49 48 49 51 51 51 50 50
61 60 59 59 58 58 58 59 58 58 59 60 61 59 57 57 54 53 53 53 52 52 52 52 51 52 52 53 52 52 53 52 52 53 53 52 52 52 51 52 51 52 52 53 52 51 49 50 49 48 48 48 51 48 48 49 50 49 48 48 50 47
58 59 58 57 56 57 57 58 58 59 58 58 59 59 59 57 56 54 53 52 53 53 52 53 52 53 52 52 52 51 52 51 52 52 52 52 52 51 51 53 52 50 51 49 52 50 49 50 47 48 48 48 48 49 48 48 49 49 49 48 48 48

ECMWFFLT2_sfc_temp_030.txt.gz
Temp
71 71 72 72 72 72 74 75 74 74 74 74 74 74 74 74 74 74 74 73 71 70 69 69 70 70 74 71 72 74 75 75 74 74 74 73 73 73 73 73 72 72 72 72 70 69 70 71 71 71 71 71 71 68 67 68 68 68 68 69 69 66
71 72 72 71 72 72 73 74 72 72 72 73 74 74 73 72 74 70 73 70 69 70 67 67 68 73 69 71 72 74 75 74 74 74 73 73 73 73 73 72 72 72 71 71 68 63 63 67 71 71 71 70 66 66 67 67 67 68 68 68 68 68
71 71 72 71 71 71 71 71 71 71 72 73 74 72 71 71 68 69 68 68 68 67 67 69 69 70 70 72 71 74 74 73 74 74 73 73 73 73 72 72 72 72 70 67 63 62 62 61 64 69 68 65 64 65 66 66 67 67 67 68 67 70
71 72 71 71 71 70 70 70 70 70 70 69 69 69 69 68 68 67 67 67 67 68 67 67 73 75 73 70 70 72 72 71 71 73 74 73 74 73 73 73 72 70 66 65 62 62 63 62 62 62 62 63 64 63 66 66 67 67 67 69 67 70
71 71 71 71 70 70 70 70 69 69 70 69 69 68 68 67 67 67 67 67 67 68 66 66 65 67 67 66 66 66 68 68 68 67 70 67 68 69 69 66 66 66 64 64 64 62 63 64 63 63 63 63 65 64 65 67 67 67 67 68 68 70
72 71 71 70 70 71 70 69 69 69 69 69 68 68 67 66 66 67 66 66 67 66 65 64 64 65 66 65 65 65 66 65 66 66 68 66 66 65 65 65 64 64 64 64 63 62 63 64 64 63 63 63 64 64 64 66 67 67 67 67 68 71
70 70 70 71 71 72 69 69 69 69 69 68 68 67 67 66 66 66 66 67 65 64 64 64 64 64 65 65 65 65 65 65 65 65 66 66 65 65 64 64 64 64 63 63 63 64 63 64 63 64 64 65 65 65 64 66 67 67 67 67 68 71
70 70 69 71 70 70 69 69 69 71 68 69 68 66 65 65 66 66 66 66 67 64 64 64 64 64 64 65 65 64 64 64 65 65 66 65 65 65 64 64 64 64 64 63 65 65 64 65 64 64 65 65 64 64 63 65 66 67 67 67 67 70
69 70 69 70 69 69 69 68 69 68 68 71 66 66 64 65 66 66 66 66 67 64 63 64 63 64 64 64 63 63 64 64 64 64 65 64 65 64 64 64 63 63 63 63 64 65 65 66 64 63 64 65 65 64 64 65 66 67 67 67 67 69
69 69 69 69 68 68 67 67 68 69 68 69 66 65 64 64 65 65 65 65 66 65 64 64 63 63 63 63 63 62 63 63 64 64 64 64 64 64 64 64 64 64 64 63 65 65 65 64 65 64 62 65 64 65 64 65 65 66 67 67 67 68
69 69 68 68 68 68 67 67 68 68 69 67 65 65 64 64 64 64 65 65 65 66 65 64 63 63 63 63 62 62 62 62 63 63 64 64 64 64 63 64 64 64 64 63 64 63 64 64 63 65 64 66 66 64 64 65 66 66 67 67 67 67
69 69 68 68 68 67 67 66 67 67 68 67 67 65 64 64 65 64 65 64 65 65 65 63 63 63 63 62 62 62 61 62 62 63 64 64 63 63 63 64 64 64 63 63 63 62 64 62 63 64 65 66 64 64 64 65 66 67 67 67 67 67
70 69 68 67 67 66 66 67 66 66 66 67 67 65 64 64 64 65 65 64 64 65 64 63 62 64 65 63 62 61 61 62 62 63 64 65 65 63 64 63 62 63 61 61 63 61 63 62 63 63 64 66 64 65 65 66 66 66 67 67 67 67
69 68 68 67 66 66 66 66 66 66 68 66 65 65 65 64 65 65 64 63 63 64 63 64 63 64 64 63 62 62 62 61 62 63 64 64 64 64 64 63 62 62 65 61 62 61 61 63 63 63 64 64 64 64 65 66 65 66 66 67 67 67
69 67 68 67 67 66 65 66 66 66 66 66 65 65 64 64 64 64 63 63 63 64 64 64 64 63 62 62 62 62 62 62 62 63 64 64 64 64 63 63 62 62 61 61 61 63 62 62 62 63 63 63 64 64 65 66 65 66 66 66 66 67
67 66 65 66 65 65 65 65 65 66 65 65 65 65 65 65 64 63 63 63 64 65 64 64 64 63 61 62 62 61 61 62 63 63 63 63 63 63 63 62 62 62 61 61 63 62 61 62 62 62 62 62 63 64 63 64 65 66 66 66 66 66
66 66 65 64 64 64 63 64 64 64 64 64 63 63 63 63 63 62 61 62 63 65 64 64 64 63 62 61 61 61 62 63 63 62 62 62 62 63 62 62 61 62 62 60 62 61 61 60 61 61 62 62 62 63 63 63 63 65 66 65 65 66
65 65 64 63 63 62 62 62 61 62 63 61 61 62 62 62 61 61 61 61 62 64 63 64 63 62 61 62 61 61 62 63 63 62 61 62 62 62 60 61 60 60 61 61 60 61 60 61 61 62 62 62 62 62 63 63 64 65 65 65 64 65
65 63 63 62 62 60 60 60 60 60 60 60 60 61 61 61 61 60 60 62 63 63 63 62 63 63 61 62 61 61 62 63 63 62 60 61 62 61 61 60 60 60 61 61 60 60 60 60 60 60 60 61 61 62 62 63 63 63 64 65 66 66
62 62 62 60 60 60 60 59 59 59 59 59 59 61 59 60 60 60 60 62 62 61 61 62 63 63 61 61 60 61 62 63 63 62 60 60 60 60 61 59 60 61 60 61 61 61 60 59 59 59 59 59 60 61 62 62 62 63 63 64 65 65
61 62 61 60 59 59 59 57 56 57 56 55 58 58 58 57 57 58 60 60 62 61 61 61 62 62 60 63 61 61 61 62 62 61 60 60 60 61 61 60 60 60 59 58 60 61 60 60 60 60 57 57 59 62 63 61 62 63 63 63 64 64
60 61 61 61 60 59 57 58 58 57 55 56 58 57 57 56 57 58 58 60 61 60 60 61 62 61 61 62 61 60 61 62 62 61 61 61 60 63 61 60 59 58 58 58 59 61 60 60 57 57 58 59 58 59 61 60 61 62 63 64 63 63
60 61 60 61 60 58 56 57 56 55 57 55 55 56 56 57 58 57 56 56 57 58 59 59 61 62 60 61 61 60 61 62 62 63 61 60 61 62 61 60 59 59 58 60 60 61 59 58 58 58 57 57 55 56 58 58 59 61 62 62 62 64
60 60 60 61 61 58 58 57 57 57 55 56 58 57 57 57 57 57 58 57 57 55 56 57 60 61 60 60 60 61 61 61 61 62 61 60 60 61 61 61 60 59 59 59 59 59 60 58 58 57 56 56 54 55 54 56 56 59 61 62 62 64
60 60 60 61 59 59 59 58 58 59 59 58 58 56 56 56 56 59 58 56 56 55 56 56 57 58 61 61 60 60 60 60 60 61 60 60 60 60 60 61 61 60 60 60 58 59 60 60 59 60 59 55 53 53 52 56 56 59 61 62 62 63
58 59 59 58 59 60 60 59 58 57 55 54 56 54 55 56 55 54 55 55 56 56 56 56 56 57 60 61 60 58 58 59 60 60 60 59 60 59 59 60 62 62 61 61 61 60 60 60 59 59 58 57 56 54 54 57 57 55 59 59 60 62
59 58 58 58 59 60 58 59 59 58 57 57 55 52 51 51 53 54 54 54 55 55 55 56 56 56 57 59 57 57 58 59 59 59 60 58 59 59 60 61 61 62 62 61 61 60 60 60 60 60 60 60 60 60 60 57 55 54 55 57 58 58
58 58 57 58 58 60 59 58 56 56 56 55 56 55 53 53 52 54 54 53 55 54 55 55 56 56 57 58 57 57 57 58 58 58 60 58 59 59 59 59 59 60 61 61 62 60 60 60 59 58 60 59 59 58 59 58 56 59 54 54 55 58
57 56 56 57 58 58 60 58 57 56 55 53 55 55 54 54 53 53 54 53 54 54 54 54 55 56 56 58 59 57 57 57 57 58 58 57 56 57 56 56 56 57 58 57 58 60 61 59 59 58 58 58 58 57 56 56 56 57 55 54 52 54
56 56 55 55 57 56 58 58 56 55 55 54 55 53 53 52 52 52 53 52 53 54 53 54 54 55 55 56 56 57 56 56 56 58 58 55 55 55 54 54 54 55 55 55 55 57 58 57 58 59 59 57 57 57 56 56 55 55 56 57 55 55
56 56 55 55 56 56 56 57 57 56 56 55 54 54 54 53 52 53 53 51 52 52 52 53 53 55 54 55 56 57 55 56 57 58 56 55 54 54 53 53 54 54 54 54 54 54 54 55 56 57 57 57 58 57 55 55 55 55 56 55 55 55
55 55 55 56 55 56 57 56 56 57 56 56 56 55 54 53 52 52 52 52 51 52 52 53 52 53 54 54 55 54 55 54 55 54 54 54 54 54 54 54 54 54 53 53 54 54 53 53 54 53 53 54 54 55 55 56 55 54 57 56 55 53
55 55 55 55 55 56 57 57 57 57 57 57 56 55 54 53 51 52 51 51 52 52 51 54 52 54 54 54 55 54 54 54 54 54 53 53 53 53 54 54 54 53 52 53 52 53 53 51 53 54 53 52 53 54 53 52 53 53 52 52 54 52
55 56 56 54 55 56 56 57 58 58 58 58 56 56 55 54 52 53 52 51 51 52 51 51 51 52 51 52 53 54 54 53 53 53 53 53 53 53 53 54 54 53 53 52 52 52 52 51 51 51 53 54 53 53 52 52 52 52 52 53 52 52
58 57 57 56 56 56 56 56 57 58 58 58 57 56 55 56 54 53 51 51 50 49 51 51 52 52 53 51 52 52 53 52 52 53 53 53 54 53 54 54 54 52 52 52 53 53 52 53 53 52 52 53 53 52 52 52 53 52 53 54 54 51
61 58 57 57 57 57 56 57 57 57 57 58 58 57 57 55 54 53 52 52 51 50 50 50 50 52 51 52 51 51 53 52 52 52 52 52 52 53 52 53 53 53 53 54 52 52 51 52 51 51 52 52 53 51 51 52 53 52 53 52 52 51
58 57 58 58 57 57 56 57 56 56 56 57 57 57 57 55 54 53 53 52 53 51 50 51 52 53 51 51 50 52 51 51 51 51 52 52 52 52 52 53 52 52 52 52 53 51 51 52 51 51 51 52 52 51 51 51 52 52 52 51 51 52

ECMWFFLT2_sfc_temp_033.txt.gz
Temp
78 78 78 77 76 76 76 75 75 75 74 74 74 74 74 74 74 75 75 74 73 77 78 78 77 79 75 77 74 74 75 74 74 74 74 73 73 73 73 72 72 72 71 70 70 70 71 72 71 71 71 72 73 78 79 78 79 80 81 81 79 81
77 78 78 77 76 76 75 75 76 76 76 75 75 75 76 78 77 78 74 75 78 78 78 78 78 76 77 77 76 73 74 74 74 74 74 73 73 73 73 72 72 72 70 69 68 77 75 72 71 71 72 70 78 80 79 79 78 80 80 81 80 77
78 78 76 76 75 75 76 77 76 76 77 76 77 78 78 78 78 78 78 78 76 77 78 78 77 77 77 74 75 72 72 72 73 74 73 73 73 73 72 72 72 71 68 67 75 77 78 78 78 73 73 77 79 80 79 79 79 80 80 80 81 73
77 75 75 75 74 74 75 75 75 77 78 77 76 76 76 77 77 77 76 75 75 76 76 76 75 75 75 76 75 72 72 71 72 71 72 74 74 73 72 71 70 69 72 76 77 78 79 79 79 79 79 79 80 79 79 79 81 80 80 80 82 71
75 75 72 72 73 73 72 73 75 74 73 73 74 75 76 76 75 75 75 74 74 74 74 75 76 77 77 77 77 76 75 76 75 75 73 75 74 74 75 77 75 73 74 75 77 77 78 78 77 78 79 79 79 79 79 79 80 81 80 80 79 71
72 72 73 72 71 72 73 74 74 72 73 75 75 74 74 74 74 73 74 73 73 73 75 76 76 75 74 75 75 76 75 75 75 75 75 74 73 73 74 75 75 75 74 75 76 77 77 77 78 78 79 78 79 79 80 80 81 80 80 80 78 70
76 75 75 75 75 73 72 75 75 74 74 75 75 74 74 73 73 74 73 74 73 74 74 74 73 74 74 76 75 75 74 74 74 74 75 75 74 73 73 73 73 75 76 77 78 78 78 78 77 79 79 80 80 80 80 81 80 80 80 80 77 70
71 72 72 74 73 75 75 74 74 74 75 74 75 74 73 74 73 73 74 74 74 75 73 72 73 73 74 75 74 73 73 73 74 74 74 76 74 72 72 74 74 75 77 78 78 78 79 79 78 78 79 79 79 80 79 81 80 80 80 79 79 73
68 71 73 73 71 74 74 74 75 76 75 75 74 73 74 73 72 74 75 74 75 74 74 74 74 73 73 73 72 72 72 72 73 73 72 72 73 73 74 75 75 77 77 77 77 77 79 80 79 79 80 80 80 81 80 79 79 80 81 81 80 77
70 73 73 72 73 73 73 73 76 75 75 75 73 72 71 72 73 74 74 73 74 74 74 74 73 73 72 71 72 72 72 71 71 72 73 72 72 75 75 76 76 76 78 76 76 76 77 79 81 79 81 81 80 81 80 80 79 80 81 80 79 78
74 71 74 73 72 73 73 74 76 75 75 75 73 72 71 72 73 73 74 72 71 72 72 72 70 71 72 72 71 71 71 72 71 71 74 74 75 76 76 76 76 76 75 76 77 77 78 78 79 81 80 82 81 80 80 79 79 80 81 80 80 78
71 71 73 75 74 73 73 74 74 74 74 75 72 71 71 73 73 73 73 70 69 69 69 67 68 70 72 71 71 72 71 71 72 72 74 75 75 76 76 77 76 75 74 75 76 77 76 77 78 81 81 81 82 80 80 79 78 78 78 79 80 79
73 73 75 75 75 73 72 73 73 73 74 72 71 70 70 71 71 69 67 66 66 68 68 67 68 68 67 67 68 68 69 69 71 72 72 72 73 74 75 75 74 75 75 76 76 76 78 77 77 77 78 80 79 80 81 80 77 77 77 79 79 80
74 75 74 75 74 74 73 74 73 72 72 71 71 70 70 69 68 66 68 70 69 68 67 66 67 67 65 65 65 66 68 69 69 69 69 70 73 73 74 74 74 75 74 75 75 75 76 77 78 78 77 78 78 78 79 80 77 76 77 77 79 79
74 74 74 74 73 73 73 73 73 72 71 71 71 71 69 69 68 68 67 67 69 69 67 68 67 65 66 65 65 66 68 70 70 70 70 71 72 73 73 72 74 74 74 73 76 75 76 76 77 78 77 78 80 80 77 77 76 76 76 77 77 79
73 72 72 72 72 72 71 71 71 71 71 71 71 71 72 71 69 68 68 67 68 68 67 67 67 66 66 66 66 67 70 70 70 70 70 70 71 72 72 72 72 72 72 74 76 75 76 75 76 76 76 76 77 77 78 78 77 78 78 77 78 76
72 70 69 71 71 70 70 70 70 70 70 70 70 70 71 71 71 70 69 69 70 70 70 70 70 69 69 68 68 70 70 70 70 70 69 70 71 71 70 72 70 70 72 72 75 76 75 74 74 74 75 75 76 75 76 75 76 76 77 75 77 78
70 70 70 70 70 69 69 69 69 69 69 70 69 70 71 73 72 72 72 71 70 70 69 70 70 70 69 70 70 70 69 69 69 68 68 70 71 69 70 71 68 68 70 71 69 70 71 73 75 74 73 73 74 75 75 74 74 74 77 77 76 77
71 71 70 69 68 67 67 67 68 69 69 68 68 69 72 73 73 73 72 70 70 70 70 69 69 69 69 69 69 69 69 69 68 67 69 69 68 69 69 69 68 66 67 67 66 67 69 71 71 72 73 72 73 73 74 74 75 75 75 77 77 77
72 71 69 68 69 69 69 69 69 70 70 69 70 70 71 72 72 73 71 70 69 69 70 70 69 69 70 70 70 70 68 69 68 68 68 69 68 67 68 68 68 67 65 64 64 65 66 68 69 70 69 70 71 72 75 74 74 74 74 74 75 77
71 70 69 69 69 69 69 70 71 71 70 71 72 71 71 72 72 72 71 72 70 70 69 69 69 68 69 69 69 69 68 68 67 67 67 68 69 69 68 69 68 68 67 65 64 66 65 67 68 67 69 69 69 69 70 72 74 75 75 74 75 76
71 71 70 71 70 71 72 73 73 72 71 71 71 71 71 71 71 70 70 69 70 70 69 70 68 68 69 69 68 68 68 68 66 66 66 67 67 67 67 69 68 66 68 69 67 68 67 68 67 67 65 66 69 70 71 71 72 74 74 76 75 74
70 70 70 70 70 69 68 68 70 69 71 69 70 71 72 70 71 71 68 69 69 69 69 71 69 68 68 68 68 68 68 68 68 67 66 67 67 66 66 68 68 67 65 67 67 67 66 67 66 68 67 66 65 65 68 70 71 72 72 72 73 74
70 70 69 70 70 69 68 67 68 68 68 70 68 68 68 69 70 70 69 69 70 69 69 70 70 70 69 68 67 68 68 67 67 68 67 67 67 66 65 65 67 67 68 66 66 65 67 66 67 67 63 64 64 65 64 66 67 68 70 70 71 73
70 69 69 69 69 68 68 68 68 68 69 68 69 70 70 70 70 70 70 70 68 69 69 70 69 70 71 68 67 67 67 67 67 67 68 68 68 68 67 67 67 66 67 67 65 65 65 65 64 65 64 62 62 62 64 64 66 65 68 69 69 73
70 69 69 69 69 69 69 68 68 68 67 68 67 68 68 68 69 70 70 68 69 69 69 69 71 70 70 68 66 66 66 67 67 67 68 69 69 69 68 68 68 67 65 66 66 65 63 64 65 66 66 66 65 61 63 64 65 61 64 64 65 69
69 69 69 69 69 70 69 70 70 71 70 69 67 66 66 67 68 68 68 68 68 68 69 69 69 70 70 70 68 67 67 68 68 68 68 68 68 67 69 70 70 69 68 68 67 65 65 64 64 66 67 66 65 65 68 65 64 65 61 62 64 64
69 69 68 69 69 70 69 69 68 68 69 69 69 66 66 66 66 67 68 67 69 68 68 69 69 70 70 71 70 69 69 69 70 71 71 70 67 66 66 66 67 69 70 69 68 66 65 65 63 63 66 65 64 64 67 67 68 67 65 60 61 65
68 68 68 68 69 69 69 69 69 69 67 68 68 67 67 68 67 67 67 67 68 69 68 67 69 69 69 70 70 70 70 71 70 71 72 71 68 69 68 67 68 69 69 68 68 68 66 65 65 64 64 62 65 65 63 65 66 68 66 63 62 63
66 67 66 67 67 67 68 68 68 68 67 66 67 66 68 66 66 68 67 66 67 68 69 68 67 68 68 69 69 69 70 69 69 70 70 70 68 68 67 68 68 69 68 68 68 69 67 66 66 65 66 64 64 63 63 64 65 67 68 68 64 65
65 66 66 65 66 66 67 68 69 69 68 66 66 66 66 65 66 67 67 66 67 67 68 68 68 67 67 68 68 69 69 69 69 68 69 70 69 70 68 67 67 67 67 67 68 67 66 66 65 65 66 67 68 67 66 64 64 65 66 65 64 64
65 65 65 65 66 66 67 67 68 69 68 67 67 67 67 65 67 67 67 66 66 67 67 67 67 68 66 67 67 67 67 68 68 68 68 69 68 69 68 68 68 68 67 66 66 67 66 65 65 67 67 69 68 69 68 68 69 69 68 67 66 64
65 66 66 66 66 66 66 67 67 68 68 68 68 68 68 66 67 67 67 66 67 67 67 67 67 67 66 66 67 68 68 68 68 67 67 68 67 67 68 69 68 67 67 67 67 67 67 66 67 67 67 67 69 69 68 68 69 69 70 70 68 65
60 62 63 64 64 64 65 66 67 68 68 68 68 68 68 67 67 68 68 68 68 68 68 67 67 66 66 67 67 66 66 66 66 66 66 65 66 66 67 70 69 68 66 66 66 66 65 65 65 65 67 68 68 68 67 68 68 69 68 68 68 66
59 60 62 63 64 65 65 64 65 67 68 68 68 68 68 67 66 66 67 67 67 68 68 68 68 66 67 66 66 66 66 66 65 65 66 65 65 66 66 68 68 65 65 66 66 66 66 65 64 65 66 67 66 67 67 69 69 69 70 69 69 68
61 60 62 63 65 65 65 65 65 65 66 66 67 67 66 66 66 67 66 68 67 67 68 67 67 67 66 67 66 66 66 66 66 66 66 66 66 67 66 66 67 66 65 66 65 65 65 65 64 64 65 66 67 67 68 69 70 68 70 69 69 69
61 61 62 64 64 64 64 65 65 65 65 65 65 66 66 65 65 65 64 65 67 67 67 68 67 68 67 67 67 68 67 66 66 66 66 66 66 66 66 66 66 65 65 65 66 65 65 65 65 65 66 65 66 67 67 67 68 68 68 68 69 69

ECMWFFLT2_sfc_temp_036.txt.gz
Temp
81 80 81 81 80 79 77 75 74 74 74 74 74 74 74 74 74 75 76 75 75 78 78 78 76 80 75 79 74 74 75 75 74 75 74 74 73 73 73 73 72 71 71 71 72 71 72 72 72 72 72 73 73 80 85 86 86 87 89 87 86 84
82 80 77 79 77 75 76 75 77 75 75 74 75 75 76 77 78 78 76 77 80 74 72 77 77 79 79 77 77 74 75 74 73 73 74 73 73 73 73 72 72 71 70 71 69 80 79 73 71 73 74 70 79 86 85 85 85 88 87 87 87 77
86 83 81 79 79 74 75 71 71 74 74 74 75 77 76 79 81 80 81 82 81 81 81 74 79 79 78 76 77 73 74 74 72 72 74 73 73 73 72 72 71 71 71 69 78 85 86 87 84 73 73 79 86 87 86 85 85 86 87 87 86 73
85 80 78 77 77 74 72 70 70 72 72 74 76 74 79 79 80 81 81 80 81 81 80 75 76 75 75 77 77 73 72 72 73 73 73 75 73 73 72 71 71 71 72 79 84 84 87 86 87 85 85 85 87 86 85 85 88 87 88 86 86 72
86 85 80 78 75 72 70 68 71 71 70 71 71 76 78 78 79 79 79 78 80 79 80 77 75 76 81 77 78 78 74 76 74 75 73 79 79 79 77 79 79 77 82 81 83 82 83 84 84 85 85 85 85 85 86 86 87 88 87 86 79 73
83 83 80 77 76 74 73 73 73 71 69 70 73 73 76 78 79 79 79 80 79 78 79 73 71 70 78 80 81 82 79 82 81 80 75 80 79 78 80 81 80 81 80 81 81 83 83 83 83 84 85 84 85 84 86 87 87 87 87 84 78 72
84 82 81 82 77 75 75 73 72 72 74 72 75 78 79 78 79 79 79 79 77 79 79 80 78 77 79 80 81 81 81 82 80 80 80 80 79 78 79 80 80 81 82 82 83 84 83 83 84 86 84 85 85 86 86 86 87 87 87 85 77 72
81 80 81 84 81 80 77 74 73 74 72 74 79 79 79 79 78 78 79 79 79 80 80 79 79 78 78 79 80 80 81 81 80 80 79 79 78 79 79 81 81 81 82 83 84 83 85 85 83 84 85 85 85 85 85 86 86 86 87 85 80 74
74 79 80 80 80 78 72 72 75 74 78 76 78 79 79 79 79 81 80 80 80 78 79 79 78 79 80 78 78 79 79 78 77 77 78 80 78 78 78 80 80 82 82 83 82 82 84 86 83 84 85 85 85 87 85 85 85 87 87 87 84 77
76 81 81 79 75 71 76 78 80 79 79 79 78 78 78 80 80 81 81 79 79 79 78 77 74 71 73 74 72 74 75 78 78 76 78 77 78 78 78 80 81 82 85 82 83 81 83 83 86 85 86 86 85 87 85 85 85 87 87 86 83 77
81 78 79 79 74 74 73 76 80 81 80 79 78 77 78 79 80 81 81 78 78 79 77 77 71 71 73 73 68 67 68 73 78 78 78 78 77 78 78 80 81 81 82 83 82 82 83 83 85 87 86 87 87 86 85 84 86 87 87 86 85 79
80 77 77 80 75 72 72 79 81 81 81 81 78 78 78 79 80 81 79 76 76 76 76 76 74 73 73 73 70 67 68 68 74 77 76 75 71 77 79 81 80 79 78 79 80 82 82 83 84 87 87 88 87 86 87 86 86 87 86 86 85 84
79 76 77 78 78 78 78 81 81 81 81 78 78 77 77 76 76 75 73 75 74 74 73 72 70 69 70 71 71 70 67 69 69 74 75 75 72 73 73 77 78 79 77 76 78 79 83 82 82 83 85 88 86 87 88 87 85 85 86 86 84 83
78 78 77 80 79 80 79 80 80 80 79 76 76 75 75 74 71 73 74 75 74 73 72 71 70 69 71 71 71 70 71 72 73 76 75 75 75 75 73 74 74 76 75 77 78 80 81 81 84 84 83 86 85 85 86 88 85 84 83 84 84 83
76 78 77 78 77 77 78 80 80 80 78 75 76 76 72 73 74 75 76 76 75 75 76 75 73 71 71 70 71 72 72 72 72 74 76 76 75 75 71 73 76 72 76 77 80 80 81 81 82 83 82 82 85 86 84 85 84 83 84 82 81 83
76 74 74 74 75 76 77 77 78 77 77 76 77 78 78 76 76 77 77 76 76 75 74 75 75 74 71 72 72 72 72 71 74 74 75 75 75 70 69 74 72 71 74 77 81 81 82 80 80 80 81 81 82 82 83 84 84 85 85 83 84 81
73 72 71 71 73 75 75 76 77 78 78 78 79 80 81 80 79 78 80 78 76 75 75 75 75 75 73 73 74 72 74 73 74 75 75 73 68 69 70 72 71 74 76 77 81 83 82 79 79 79 80 80 81 80 81 81 82 82 84 81 82 81
69 70 69 67 73 75 76 76 77 78 77 78 78 79 80 81 79 79 79 78 77 77 76 76 75 75 74 74 74 73 73 74 75 74 75 74 68 70 68 67 70 75 77 76 78 80 79 79 80 80 79 78 79 80 80 79 79 79 81 81 76 74
67 67 68 71 73 73 73 75 75 76 76 77 78 78 79 81 80 80 79 78 77 77 77 75 74 74 74 74 74 73 73 73 75 75 74 73 70 69 72 73 74 74 75 76 77 76 76 77 76 77 77 78 79 78 79 79 78 78 80 78 76 76
67 68 72 72 72 73 74 75 75 77 78 78 79 79 79 80 80 80 79 78 78 76 78 76 75 75 74 74 74 73 73 74 74 73 72 72 70 69 71 72 73 74 73 74 75 76 75 75 75 74 74 75 78 78 80 78 78 78 78 75 77 78
70 72 74 74 74 76 76 76 77 78 77 78 79 79 79 79 80 79 79 80 79 78 77 76 76 76 75 74 74 74 73 73 73 73 71 71 73 73 73 73 73 74 73 72 73 75 75 75 73 72 74 74 74 76 76 76 78 79 79 79 80 79
73 75 76 76 76 78 79 80 78 78 79 79 79 79 78 78 78 78 78 77 78 78 77 76 76 76 76 75 74 75 74 73 72 72 71 72 73 72 73 74 73 72 75 73 72 74 74 73 71 71 70 71 73 74 76 75 77 79 80 81 79 78
74 76 76 77 78 78 79 79 79 78 80 80 81 80 81 80 80 80 77 78 77 77 78 78 77 77 76 76 76 75 74 74 74 73 72 71 72 71 72 72 73 73 73 74 74 73 73 72 71 72 71 69 68 68 69 73 75 76 76 78 79 80
71 76 77 77 78 79 78 78 78 78 78 78 76 77 77 78 78 78 78 79 79 77 77 78 79 79 78 76 76 75 76 76 74 75 74 70 70 70 71 72 72 72 72 71 73 72 73 73 70 68 67 67 64 67 62 62 66 70 76 74 75 77
73 77 78 77 77 77 76 76 76 76 76 75 76 76 76 76 77 77 78 77 77 78 78 78 78 78 79 76 76 75 75 75 75 74 74 74 73 72 73 74 73 72 72 70 70 69 71 73 71 72 65 63 64 66 66 61 62 61 71 74 74 77
74 77 77 76 77 77 77 75 74 73 72 73 73 73 73 73 75 76 77 77 79 79 78 78 79 79 79 77 75 75 75 76 75 75 75 75 75 75 74 74 74 73 72 72 71 69 69 70 71 71 72 70 69 65 66 65 66 58 68 71 72 75
75 77 77 77 77 78 76 76 75 75 75 74 74 75 76 76 76 77 77 76 77 77 79 78 77 78 78 77 76 76 75 76 76 75 76 75 74 74 77 77 76 75 75 74 72 70 69 69 70 72 72 73 72 72 72 69 66 63 59 67 72 72
74 74 76 77 77 78 77 76 75 76 76 76 75 73 74 75 76 76 76 76 77 77 78 78 77 78 78 78 77 77 76 76 76 77 78 77 75 75 75 76 75 75 75 75 73 71 70 71 69 69 71 69 70 70 74 73 72 67 60 59 66 72
75 76 75 77 77 78 78 77 77 77 76 76 75 74 75 75 75 75 74 76 76 78 77 76 78 77 78 78 78 77 76 76 75 76 78 77 76 76 74 73 72 73 72 73 74 73 72 72 72 72 71 70 71 71 72 72 73 73 62 67 68 69
71 71 74 75 77 78 78 77 76 76 74 74 75 75 75 74 74 74 73 73 75 76 76 76 76 77 77 78 77 77 77 75 75 76 76 76 76 74 74 73 73 73 72 72 73 73 72 73 73 73 73 71 70 71 72 72 72 73 73 74 70 70
63 62 64 66 71 76 77 77 76 75 74 73 73 73 72 72 74 73 73 73 74 75 76 75 75 75 75 76 75 76 76 76 76 75 76 77 75 76 75 74 74 73 73 72 72 72 71 71 72 71 71 73 73 73 71 70 71 72 72 71 72 70
65 63 62 64 63 71 77 77 77 76 75 74 74 73 72 72 73 73 73 73 74 75 74 75 75 75 74 75 75 75 75 75 75 75 75 75 76 76 76 76 75 75 74 73 73 72 72 71 71 72 71 72 73 74 75 75 75 75 74 72 72 71
65 64 64 63 65 69 74 76 77 76 75 75 75 74 74 73 74 73 74 73 73 74 74 74 74 73 73 73 75 73 74 74 74 74 74 75 75 75 76 76 75 74 74 74 74 73 73 72 72 72 72 74 76 76 75 76 76 76 76 75 74 72
65 67 67 66 67 69 74 76 77 77 76 76 75 75 75 74 74 75 75 74 74 74 74 73 73 73 74 75 74 73 73 73 74 74 74 73 74 74 75 77 75 73 73 73 73 73 72 72 72 73 75 75 75 75 74 75 75 75 74 73 72 71
65 66 68 68 69 70 73 74 76 77 77 77 75 76 76 75 75 74 75 74 75 75 74 74 74 74 74 74 73 74 74 74 73 73 73 73 74 74 74 76 75 73 73 73 73 73 72 71 71 72 72 74 74 74 74 77 76 76 78 76 74 73
66 68 70 70 71 72 73 74 74 74 75 76 76 76 76 75 75 75 74 75 74 74 75 75 74 74 74 74 74 74 74 74 74 74 74 74 74 75 74 74 74 73 72 75 72 72 72 72 71 71 72 73 74 74 75 76 77 75 77 76 76 76
67 69 71 72 72 73 73 73 73 74 75 74 74 74 74 74 73 74 74 75 75 75 74 75 74 74 74 75 74 75 74 74 73 74 74 74 74 74 74 74 73 72 72 73 72 72 72 72 72 72 72 72 74 74 74 74 75 75 75 75 77 77

ECMWFFLT2_sfc_temp_042.txt.gz
Temp
73 74 74 72 72 71 70 71 71 73 74 74 73 73 73 73 74 75 75 74 74 75 74 74 74 75 75 75 74 74 75 75 75 75 74 74 74 74 74 74 73 73 73 74 73 73 73 74 74 73 74 74 74 72 74 77 80 79 78 77 75 74
73 73 72 72 73 71 70 71 71 71 73 73 73 74 74 74 75 74 74 74 74 72 73 74 74 76 74 75 74 74 75 75 74 74 74 74 74 73 73 73 73 73 73 73 73 72 73 74 74 74 74 73 72 73 76 78 80 80 78 76 74 73
73 72 72 74 73 71 71 72 72 72 73 73 73 74 74 74 74 74 74 73 72 71 71 72 73 75 75 75 75 74 75 75 74 74 74 74 73 73 73 72 73 73 73 73 72 73 75 75 73 75 74 73 72 75 78 79 79 79 78 76 74 74
74 73 74 74 71 71 71 71 70 72 73 71 72 74 74 74 74 73 71 71 70 72 72 71 76 77 77 74 74 74 74 74 74 74 74 73 73 73 73 73 72 73 73 74 73 75 77 78 75 73 72 72 74 77 79 78 79 79 77 77 75 74
75 75 74 73 72 72 72 71 69 69 72 70 72 73 73 73 72 72 71 70 70 72 72 71 72 72 71 72 73 73 73 73 73 73 73 73 72 73 72 73 73 72 72 74 75 76 76 78 76 77 75 76 77 79 79 78 77 79 77 75 73 74
75 75 73 73 73 74 72 70 69 69 71 73 72 72 70 71 71 71 70 70 70 70 71 70 71 71 71 70 71 70 73 72 73 72 73 72 72 73 73 74 74 74 73 74 74 75 77 77 77 77 77 77 78 80 79 78 76 76 74 73 72 74
73 74 74 75 75 74 74 72 72 72 71 71 72 69 68 71 72 72 71 70 69 69 68 69 68 68 70 71 72 72 71 71 71 70 71 69 71 71 71 70 69 69 68 69 72 73 72 74 78 80 79 80 80 79 77 71 75 76 74 73 73 73
74 74 74 76 75 75 74 71 70 72 73 74 74 71 70 71 73 71 70 69 70 68 68 68 69 69 69 72 70 71 71 71 71 71 71 71 71 70 70 69 68 68 69 70 70 69 67 69 73 79 79 78 79 78 78 72 71 76 73 73 73 73
73 75 74 75 76 75 74 73 73 73 73 76 74 71 72 72 71 71 70 69 69 67 69 70 69 70 69 70 69 68 70 70 71 71 71 71 70 70 69 69 68 69 68 69 67 67 67 68 67 71 78 80 79 80 78 75 74 75 74 73 73 72
72 73 73 75 74 74 73 72 74 75 72 74 73 72 72 70 70 69 68 68 69 68 69 70 69 70 68 69 68 69 70 71 70 69 69 70 70 70 69 68 68 68 69 67 66 67 67 68 69 73 76 78 78 79 76 75 75 74 74 74 73 71
72 70 73 75 74 73 74 74 74 74 74 74 73 72 71 70 69 69 68 69 69 68 67 69 70 71 68 69 67 67 67 68 68 69 69 70 70 69 68 68 69 68 67 67 67 68 68 67 69 71 75 80 77 77 73 70 74 73 74 74 73 72
73 72 74 75 72 73 74 75 74 74 74 74 74 73 71 69 69 70 70 69 68 67 68 69 70 71 70 68 66 67 67 67 68 70 71 70 69 68 68 69 70 69 68 67 66 66 68 68 70 71 72 72 70 78 76 70 71 71 75 75 74 72
73 72 73 73 73 75 75 75 74 74 74 74 73 73 70 69 69 70 69 69 68 67 67 67 69 71 71 68 68 68 68 69 71 71 71 71 71 69 69 69 69 70 67 67 67 67 68 67 68 68 70 70 65 73 74 73 71 71 75 75 74 73
72 73 72 72 72 74 75 75 75 75 75 75 74 74 72 71 72 70 69 69 68 68 66 67 71 71 71 70 69 70 70 71 72 71 71 70 70 69 68 69 69 68 69 68 67 67 67 67 68 68 67 71 70 68 73 74 72 74 75 74 73 73
72 71 72 71 72 75 75 75 76 75 75 75 75 76 75 74 73 73 69 69 70 71 71 72 72 71 71 71 69 68 71 72 72 71 71 69 68 67 68 69 69 69 68 68 68 68 67 66 66 66 66 67 67 69 69 67 73 73 71 71 70 72
71 70 71 71 72 73 73 74 75 76 74 75 76 77 75 75 76 76 76 75 76 75 75 74 73 72 71 71 71 68 71 72 71 71 70 69 69 68 67 68 68 67 65 67 68 67 67 66 66 66 67 67 66 65 67 67 67 69 71 71 72 70
69 70 69 70 71 72 72 73 74 75 76 76 76 76 76 76 76 75 73 72 74 74 75 74 73 73 71 72 70 71 70 72 71 71 69 69 69 69 69 69 68 68 68 67 68 68 67 66 66 66 66 68 66 67 65 67 66 65 67 67 69 69
70 68 67 68 69 70 71 73 74 75 76 77 77 77 77 78 77 76 76 75 74 74 74 73 73 73 71 71 70 70 70 71 70 69 68 69 69 70 69 69 68 68 68 67 66 65 66 66 66 66 66 66 67 67 66 65 66 66 65 67 66 68
67 68 68 68 69 70 71 74 75 76 76 76 77 77 78 78 77 76 76 75 76 75 74 73 73 73 71 71 71 70 68 69 69 68 68 69 69 70 69 69 69 68 68 67 65 66 65 65 65 65 65 67 68 67 67 67 68 67 66 66 67 69
69 70 70 70 69 68 71 74 74 75 76 76 77 77 77 77 77 76 77 76 76 75 76 74 74 73 72 71 71 70 68 69 68 68 68 68 68 69 68 68 68 69 67 66 67 65 64 64 64 65 64 66 67 66 68 67 69 67 65 66 66 66
71 73 71 74 73 73 73 73 73 74 74 75 76 76 77 77 76 76 77 79 77 76 76 75 75 74 73 73 71 70 70 69 68 68 68 68 69 70 69 69 68 67 66 65 65 66 65 64 64 63 65 66 65 67 67 69 67 68 69 67 65 66
71 72 73 73 73 74 75 74 73 74 74 75 76 75 74 74 75 76 75 75 75 75 75 74 74 74 73 72 70 69 69 70 69 69 69 69 70 70 70 69 68 66 67 66 64 66 65 66 62 62 61 62 63 65 67 68 68 69 70 70 66 64
71 72 72 72 72 70 73 74 73 74 75 76 78 77 77 76 76 77 75 75 75 75 75 75 75 75 75 74 72 69 69 70 70 71 69 68 68 69 68 66 67 66 64 66 64 67 66 67 63 64 63 62 58 59 62 65 67 68 69 68 67 64
71 71 70 70 69 69 70 72 73 75 75 74 73 74 74 75 75 76 75 76 75 74 76 76 78 78 75 74 74 72 72 69 69 71 70 69 69 68 68 67 66 67 67 64 65 65 68 67 66 63 59 60 59 60 57 59 62 65 68 69 68 66
70 69 69 68 68 68 68 70 73 73 73 73 73 73 72 72 74 74 74 74 74 76 76 76 75 76 76 73 73 73 72 72 70 70 71 70 70 70 70 69 69 67 66 65 64 65 66 67 67 67 62 59 57 57 58 61 62 62 67 64 66 65
68 68 68 67 66 66 65 66 70 69 66 67 67 70 69 69 71 71 72 74 76 76 76 76 75 75 75 74 73 73 74 73 71 70 69 69 70 69 70 70 69 68 67 67 65 63 63 66 67 66 67 64 62 59 60 62 62 56 64 65 65 66
66 66 66 65 65 65 65 66 68 70 70 69 69 69 71 71 71 72 73 73 74 75 76 74 74 74 74 74 73 74 74 73 73 71 71 70 71 71 73 73 70 68 67 68 66 64 64 65 67 65 67 66 65 65 65 63 58 60 55 61 64 64
64 64 65 65 65 65 65 64 66 70 69 69 70 70 71 71 72 73 72 72 73 73 75 75 74 75 75 74 73 73 73 72 73 74 73 71 70 71 71 72 70 71 70 68 66 64 63 64 63 64 65 64 66 67 68 68 67 62 60 56 58 63
65 65 64 65 65 65 65 65 67 70 70 70 71 71 71 72 71 72 71 72 73 74 73 74 75 75 74 75 73 72 72 73 73 74 75 74 72 72 70 69 69 69 68 68 68 67 66 65 66 63 64 65 65 66 66 64 64 63 60 60 57 58
64 64 65 65 65 65 66 66 67 69 70 69 71 71 71 70 71 71 71 71 71 71 72 73 72 73 73 75 74 73 73 72 71 72 73 73 71 70 69 69 69 69 69 68 68 68 66 66 66 67 66 66 64 64 64 63 61 63 63 63 59 57
64 64 65 65 66 66 67 69 70 71 70 70 70 70 69 69 70 70 70 70 71 71 71 70 71 71 71 73 72 72 71 71 72 71 72 72 70 71 70 69 70 69 69 68 67 67 67 67 67 65 66 67 65 64 62 61 60 61 60 60 60 60
66 65 65 66 67 67 69 70 71 71 71 70 71 70 69 68 69 70 70 70 70 70 70 71 70 70 70 71 71 69 70 71 70 70 70 70 70 71 70 70 69 68 68 68 68 68 67 66 67 66 66 66 66 65 64 65 64 64 61 60 62 61
65 65 66 67 67 68 69 70 71 71 71 71 71 71 70 69 70 69 70 70 69 69 69 69 69 69 70 70 70 69 69 68 69 69 69 71 70 70 69 69 69 68 67 67 66 67 65 65 66 66 66 68 68 68 67 68 67 64 64 64 64 61
65 66 67 67 68 68 69 70 71 71 71 71 70 70 70 70 71 71 71 70 70 69 69 68 68 69 70 70 69 69 69 69 69 69 69 69 69 69 69 71 69 67 67 67 67 66 66 66 65 66 67 66 66 67 67 69 67 67 65 65 64 64
66 67 67 68 69 69 70 70 71 72 71 71 71 71 71 71 71 71 71 71 71 70 68 69 69 69 69 68 68 69 69 68 69 69 69 68 70 68 68 69 68 66 66 67 67 66 65 66 67 67 65 65 66 65 65 68 66 66 70 68 67 65
67 67 67 68 69 70 70 71 71 71 71 71 71 72 71 72 72 72 71 71 71 70 70 69 69 69 69 68 68 68 68 68 69 70 69 69 68 68 67 66 66 66 66 71 66 66 65 66 65 65 65 66 66 66 67 68 69 66 68 67 68 66
67 68 68 69 70 71 71 71 71 71 71 71 70 71 70 71 71 72 72 72 71 70 70 69 70 70 68 69 69 68 68 68 68 68 68 68 68 68 67 67 66 65 65 66 66 67 65 65 65 65 65 66 65 65 66 66 67 67 68 67 67 66

ECMWFFLT2_sfc_temp_045.txt.gz
Temp
71 72 71 70 69 70 74 74 74 75 75 74 73 74 74 74 74 74 74 74 73 71 71 71 72 71 75 72 73 74 74 74 74 75 74 74 73 73 73 73 73 73 73 73 73 73 73 73 74 74 74 74 74 70 69 70 73 72 71 71 71 72
70 70 70 70 70 70 71 72 71 71 72 72 74 74 72 72 75 71 74 71 70 71 70 70 71 75 72 73 73 74 74 74 74 74 74 73 73 73 73 73 73 73 72 73 73 68 69 72 74 74 73 74 70 68 68 71 72 72 71 70 71 73
70 69 70 69 69 69 68 69 70 70 71 73 74 72 71 72 70 71 70 70 69 69 69 70 71 74 73 73 73 75 75 74 74 74 74 73 73 73 73 73 73 73 73 72 69 66 68 68 68 74 74 71 67 68 70 72 72 71 70 71 71 74
70 70 69 68 68 68 68 69 69 69 69 70 69 70 70 70 70 69 69 69 68 70 69 69 76 77 75 72 72 74 75 74 74 74 74 72 73 73 73 73 73 73 71 70 68 68 70 71 70 69 67 66 67 68 70 72 72 71 71 73 73 74
71 71 69 68 69 68 68 68 68 68 68 68 69 69 69 69 69 69 68 69 69 70 70 69 69 69 68 69 69 69 70 69 69 68 72 66 67 69 69 67 67 68 66 68 69 69 69 69 69 70 67 67 68 70 71 72 72 71 70 71 71 74
71 71 69 69 69 70 68 67 67 68 67 68 69 69 69 69 69 69 68 69 69 68 69 68 67 67 67 66 68 68 67 68 68 68 69 66 66 67 67 67 66 66 65 66 67 67 67 66 66 67 69 70 70 71 72 72 71 71 69 69 72 74
70 70 70 71 70 68 67 67 67 68 67 67 67 67 68 68 68 68 68 68 67 66 66 65 66 66 66 66 67 67 67 67 67 67 69 66 67 66 66 65 65 65 65 66 67 67 67 69 67 70 69 70 73 71 69 69 70 69 68 69 72 74
70 70 70 72 70 69 68 67 68 70 68 69 68 66 67 68 69 67 68 68 69 66 65 65 65 65 66 66 66 67 66 66 67 66 67 67 66 66 65 65 64 64 66 66 66 66 66 70 67 67 69 69 71 70 70 68 71 70 68 68 71 73
70 71 71 71 70 69 68 68 68 68 67 71 67 67 67 68 67 67 67 67 68 66 65 65 65 66 65 66 65 65 66 65 66 66 66 65 66 65 65 65 64 65 64 64 64 65 66 67 66 68 69 70 69 69 69 67 68 70 69 68 69 72
70 71 71 71 69 68 68 67 68 68 68 71 68 68 69 67 66 66 66 67 67 67 66 65 65 65 65 65 65 64 65 65 65 65 65 65 65 65 65 64 64 64 65 63 64 66 66 66 67 69 69 68 65 66 67 65 66 67 69 69 69 70
71 70 70 70 69 68 69 68 67 68 69 69 69 69 67 67 66 65 65 66 66 66 66 66 66 65 65 65 64 63 64 64 64 64 64 65 66 65 65 64 64 64 63 62 64 65 66 66 66 69 70 69 67 66 65 66 66 67 67 67 68 69
69 69 70 69 68 67 67 68 68 68 68 69 69 67 67 66 67 65 66 65 65 65 66 65 66 66 65 64 63 64 64 63 63 64 65 65 65 64 64 65 65 64 64 64 64 64 66 65 65 66 69 67 67 66 65 66 66 66 67 67 68 68
69 69 69 70 68 68 68 68 68 68 70 70 68 67 66 65 65 66 66 66 65 65 65 64 65 66 67 64 63 63 63 63 64 64 66 66 66 65 64 65 64 65 63 64 64 64 67 66 65 65 67 67 66 66 65 66 66 66 67 67 67 67
69 70 70 69 68 67 68 68 69 69 70 69 67 66 66 66 67 66 66 66 66 66 64 64 64 65 65 64 64 64 65 64 65 66 66 66 65 64 64 64 64 63 66 64 64 63 64 65 65 65 65 67 66 65 65 65 66 66 67 67 67 66
70 69 70 69 69 69 69 69 70 69 69 69 69 67 66 67 66 66 66 65 66 66 66 65 65 66 65 64 64 64 65 65 66 66 66 65 64 62 63 64 64 64 63 63 64 64 64 64 64 65 65 65 66 66 65 65 66 66 66 66 66 68
68 68 68 68 69 70 70 69 69 71 70 70 69 68 67 68 68 67 66 65 65 65 65 65 66 66 66 64 65 64 64 66 67 66 65 64 64 64 62 63 63 63 62 63 65 64 64 63 64 64 64 65 64 65 64 65 66 67 67 66 66 67
67 67 67 68 69 69 69 70 70 70 71 70 70 68 68 70 70 68 67 65 66 66 66 66 67 67 66 66 66 65 66 67 67 66 64 63 62 63 63 65 63 63 64 62 64 64 64 64 64 64 65 65 64 64 64 64 65 65 66 65 65 67
65 66 66 66 67 68 69 70 70 70 71 71 71 71 71 71 69 68 68 67 68 67 67 67 67 66 65 67 66 65 65 65 66 65 65 64 63 63 63 64 63 63 64 63 62 62 62 63 65 64 64 65 64 64 63 64 65 66 64 65 64 65
64 64 65 66 67 67 68 69 69 70 70 70 71 71 71 70 69 69 68 69 70 69 68 67 67 67 66 66 65 65 64 64 65 63 63 63 63 64 64 63 63 62 63 63 62 62 61 62 63 63 64 65 65 64 64 64 64 64 64 64 66 68
64 64 65 65 66 65 67 67 68 68 68 69 70 69 70 70 69 69 70 70 69 68 68 67 67 66 67 66 65 64 64 64 63 63 62 63 62 63 64 64 63 63 61 63 64 62 61 62 62 62 63 64 64 65 64 63 64 63 63 64 64 64
64 66 64 63 63 63 65 66 67 67 66 68 69 68 69 68 68 68 70 70 70 69 68 68 68 67 67 69 66 65 64 63 63 63 62 62 63 64 65 64 63 62 61 60 61 62 61 61 60 59 62 63 63 65 65 64 63 63 63 64 64 63
64 65 64 64 64 66 66 67 65 66 67 67 69 68 66 68 69 70 69 69 69 68 68 68 68 67 67 66 66 65 65 63 63 63 63 64 64 65 65 65 64 62 63 61 60 62 62 60 58 57 58 58 60 61 63 63 63 64 64 63 63 63
64 64 64 64 65 65 67 67 66 67 68 66 68 69 69 69 70 70 68 69 69 68 68 69 68 67 67 67 65 64 65 64 64 64 64 63 64 63 63 63 62 62 61 61 60 63 62 61 58 58 58 58 54 55 58 60 62 63 64 63 63 63
64 64 64 65 65 64 66 66 67 68 68 70 68 68 69 69 69 69 68 69 67 67 67 67 69 70 69 67 65 65 65 65 64 65 64 63 62 63 62 62 62 63 61 58 60 61 63 63 61 58 56 55 55 55 53 54 58 60 62 63 63 63
65 65 65 65 64 64 67 66 67 67 68 68 68 68 67 65 67 68 69 67 68 68 68 68 68 68 67 66 66 65 64 64 65 65 66 65 64 64 64 62 62 62 61 60 60 60 61 63 62 62 58 56 54 53 53 56 58 57 61 61 61 62
65 64 64 64 64 64 66 66 66 66 64 63 63 63 62 64 64 65 66 66 67 66 68 68 67 67 66 66 65 65 65 66 64 66 64 64 65 65 64 64 63 62 62 62 60 59 60 62 61 62 61 59 58 54 55 58 58 53 60 61 61 62
64 64 64 63 63 64 64 65 65 66 65 65 63 64 63 64 65 65 66 65 67 67 68 67 66 66 66 65 65 66 65 65 65 64 65 64 64 64 66 67 64 63 62 62 61 58 60 60 61 61 62 61 62 61 61 57 54 56 54 58 60 60
63 63 63 63 63 65 65 64 65 66 66 64 64 64 65 65 65 66 65 66 65 66 68 68 67 67 65 66 66 66 65 64 65 65 65 64 64 64 65 65 64 64 63 62 61 60 58 60 58 59 60 60 61 61 63 63 62 58 57 54 56 59
62 62 62 63 62 63 64 63 65 65 64 65 66 65 65 66 64 66 64 63 64 65 65 65 66 65 65 66 67 66 64 64 64 65 67 66 65 65 63 63 63 63 62 62 62 61 60 59 60 59 59 59 60 60 60 61 60 61 56 54 54 56
62 61 62 62 62 62 63 63 64 65 65 64 65 64 64 63 64 62 63 63 63 64 64 64 65 66 65 65 65 65 65 65 64 66 66 64 63 63 63 63 63 63 62 62 62 62 61 61 62 61 60 60 59 59 59 59 59 60 58 58 54 55
62 62 62 62 62 62 63 64 65 65 65 64 64 64 63 63 62 63 63 63 63 63 63 63 63 64 64 65 63 64 63 64 64 64 65 65 63 63 62 62 63 62 62 62 61 61 62 61 61 60 61 59 59 60 57 56 58 58 58 55 55 55
62 62 62 62 62 62 64 65 66 66 66 65 65 64 63 63 62 63 63 62 62 63 63 63 62 62 63 63 63 63 63 63 63 63 62 63 63 64 63 63 62 62 61 61 62 62 59 60 60 60 60 60 59 61 61 61 60 59 59 57 58 57
62 62 62 63 62 63 64 65 66 66 65 65 65 65 64 63 62 63 62 63 62 62 61 62 61 61 60 61 63 63 64 62 63 64 62 62 62 62 62 61 62 61 60 61 60 59 59 58 58 59 59 59 61 61 61 61 62 61 61 61 60 57
62 62 62 62 62 63 64 65 66 66 66 66 65 65 64 65 63 64 63 63 63 62 62 61 61 61 62 63 62 62 61 61 60 62 63 62 62 63 62 63 62 61 61 59 60 59 59 59 59 59 61 61 61 60 59 62 62 63 62 61 58 58
62 62 62 62 62 63 63 65 65 66 66 66 65 65 64 65 64 64 64 64 63 63 63 62 61 62 63 62 61 62 61 61 62 62 62 62 63 62 61 62 60 59 61 60 60 60 60 61 61 61 60 60 61 60 59 60 60 63 63 61 60 59
62 62 62 62 62 63 63 64 65 65 65 65 65 65 64 64 64 64 64 64 63 63 62 62 62 62 61 62 62 62 61 60 60 60 61 62 61 60 58 58 58 57 59 63 60 60 59 60 60 60 59 58 61 60 60 61 62 60 60 62 62 62
62 61 62 62 63 63 63 63 64 65 65 64 64 64 64 63 63 64 64 64 64 63 63 63 63 62 62 60 59 59 59 60 61 62 62 61 61 60 59 60 60 58 59 59 60 59 59 60 59 60 59 59 59 59 59 59 61 61 61 60 62 60

ECMWFFLT2_sfc_temp_048.txt.gz
Temp
71 70 70 71 71 71 73 74 73 74 74 74 73 73 73 74 74 75 74 74 72 70 70 71 71 71 74 72 73 74 74 74 74 74 74 73 73 73 73 73 72 72 72 72 72 72 72 72 73 73 73 73 72 67 69 69 69 68 68 68 69 70
70 69 70 70 71 71 72 72 70 71 71 72 73 74 72 72 74 70 73 70 69 71 69 69 70 73 71 72 73 74 74 74 74 74 73 73 73 73 73 72 72 72 72 72 73 64 66 69 72 73 73 74 67 67 70 69 68 68 68 67 68 72
69 69 69 69 70 71 70 69 69 69 71 73 73 72 70 71 68 69 68 69 69 68 68 69 70 72 71 73 73 74 74 74 74 73 73 73 72 72 72 72 72 72 71 71 65 63 64 65 65 71 71 67 65 66 69 69 68 68 68 67 68 74
69 68 68 69 69 69 69 69 68 68 69 69 68 69 69 69 68 68 68 67 67 69 68 68 75 75 74 71 72 74 74 74 74 73 73 71 73 72 72 71 72 71 68 67 64 65 66 65 65 65 65 64 65 67 69 68 67 67 67 71 70 74
69 68 68 68 69 69 69 68 67 67 68 67 67 68 68 67 67 67 67 68 68 69 68 67 67 68 68 68 68 68 69 68 67 67 70 64 64 66 65 65 65 65 64 65 66 65 65 65 65 65 65 67 66 66 67 68 68 67 67 68 69 74
68 68 68 68 68 70 68 67 66 67 67 67 67 67 67 67 67 67 67 68 68 67 67 66 66 66 66 66 66 66 66 66 66 66 66 64 64 65 64 64 64 65 64 65 65 65 65 65 65 64 65 67 68 68 67 67 68 67 67 67 71 74
67 68 68 68 68 68 66 66 66 66 66 66 66 67 67 67 66 66 67 68 66 65 65 64 65 65 65 66 66 65 65 65 65 65 65 64 65 64 64 63 63 63 63 64 65 65 65 65 63 66 67 68 68 68 66 66 67 66 66 67 71 74
68 68 67 68 67 66 66 66 67 69 67 69 67 66 66 66 67 66 67 67 67 65 65 64 64 65 64 65 65 65 65 65 65 66 66 66 65 63 63 63 62 63 65 64 65 64 64 66 64 64 67 67 66 66 65 65 65 66 65 66 67 71
68 68 68 68 67 66 66 67 67 66 66 70 65 66 66 67 66 67 67 67 68 65 64 64 64 64 64 64 64 64 64 64 65 65 66 64 65 64 64 63 62 63 63 63 63 64 64 64 65 66 66 66 65 65 65 64 64 64 64 65 65 68
69 68 68 68 67 66 66 66 66 66 66 68 64 66 66 66 65 66 65 66 66 65 64 64 64 64 64 64 64 64 64 64 64 64 64 65 64 63 63 62 62 63 63 62 63 64 64 63 66 66 65 64 64 64 64 64 65 64 64 65 65 67
69 69 68 67 66 66 66 66 66 66 67 66 66 67 66 66 65 65 65 65 65 66 65 64 64 64 64 64 63 63 63 64 63 63 64 65 64 64 63 62 62 61 60 61 62 63 64 63 63 67 66 66 64 64 65 65 65 65 64 65 66 66
68 68 68 67 67 67 66 66 66 66 66 67 67 66 65 65 66 64 65 64 64 65 65 64 64 64 64 62 62 63 63 63 63 63 64 64 64 62 62 63 63 64 64 63 62 63 63 63 63 66 66 65 64 64 64 64 65 65 65 66 66 66
68 68 67 67 66 66 66 67 66 67 67 68 67 66 65 65 64 65 64 64 64 64 64 64 64 64 65 62 62 62 63 63 63 64 64 64 64 62 63 63 63 63 63 63 63 63 64 62 63 64 65 65 64 64 64 64 65 66 65 66 66 66
67 67 67 66 66 66 66 66 67 67 68 67 66 65 65 64 65 64 64 64 63 63 63 63 63 63 63 62 62 62 62 62 62 63 64 64 63 62 62 62 63 62 64 62 62 61 62 62 63 63 64 65 64 63 63 64 65 65 66 66 66 66
66 66 67 66 66 66 66 67 67 67 67 66 66 65 64 64 64 64 64 63 63 64 63 63 63 64 63 62 62 62 62 62 64 64 64 63 63 62 62 62 62 61 61 62 62 62 62 62 63 63 63 64 64 63 63 64 65 65 65 65 65 66
65 66 65 66 66 66 67 67 67 68 66 66 65 65 64 65 64 64 64 63 63 64 64 63 64 63 63 63 62 61 62 63 65 64 64 62 62 62 60 61 61 61 61 62 63 62 61 62 63 63 63 63 63 63 63 64 65 65 65 65 65 66
64 65 65 65 65 66 67 67 67 67 67 66 65 64 64 65 65 64 64 64 64 64 63 63 64 64 63 63 63 62 63 65 65 64 63 62 61 61 61 62 61 61 60 61 62 63 62 62 63 63 63 63 62 62 63 63 64 64 65 64 64 65
64 65 65 65 65 66 67 67 67 67 68 67 66 66 66 67 66 64 64 64 64 65 65 64 64 64 64 65 64 64 64 65 64 64 63 62 61 61 61 62 61 61 62 60 60 61 61 61 63 63 63 63 62 62 62 63 64 65 64 64 64 64
65 65 65 65 66 66 67 67 67 68 67 67 67 66 66 66 65 65 64 64 65 65 65 64 65 65 65 65 63 63 63 63 64 63 63 62 61 61 61 60 62 60 61 61 60 60 61 60 62 63 63 63 63 63 63 63 63 62 62 64 66 66
64 64 65 65 65 65 65 65 65 65 66 66 66 66 66 65 65 64 66 65 64 63 65 64 65 64 64 64 63 63 63 63 63 63 62 61 59 60 61 61 60 61 61 62 61 61 60 61 61 62 62 62 63 63 63 62 62 62 63 63 64 64
63 65 65 64 64 64 64 64 64 64 65 65 66 65 66 65 65 65 65 66 65 64 64 65 65 64 64 66 63 62 63 62 62 62 62 60 60 61 61 61 61 60 60 59 61 61 59 60 61 60 60 60 61 62 63 63 62 63 62 62 63 63
63 64 64 65 65 66 66 65 65 65 63 64 65 64 62 63 64 65 64 64 64 64 64 64 64 63 64 63 63 63 62 62 61 61 61 61 61 63 61 62 62 59 60 59 58 60 59 59 59 59 58 57 58 59 61 61 62 62 62 62 63 63
63 63 63 64 64 65 65 66 66 63 66 63 65 66 65 65 65 65 64 64 63 63 63 63 64 64 64 64 63 63 62 62 61 63 61 60 60 60 60 61 61 60 59 59 60 61 60 60 56 57 58 57 54 54 57 58 60 61 62 62 62 62
63 63 63 63 65 64 65 65 64 66 66 67 65 65 65 64 65 65 65 64 64 63 64 63 64 64 64 62 62 63 63 62 62 62 61 60 60 60 60 60 60 60 59 57 57 59 61 60 58 58 55 53 53 53 52 54 55 58 60 62 62 62
63 63 63 63 63 62 64 63 64 64 65 64 64 63 64 62 63 64 63 63 63 62 64 64 63 63 63 62 61 61 62 62 62 62 63 61 61 61 61 61 61 60 58 57 57 57 59 60 60 60 57 55 53 50 51 53 54 55 59 60 61 62
62 62 62 62 62 63 64 64 64 64 62 61 60 60 60 61 61 62 63 62 62 63 64 62 62 63 63 62 61 61 61 62 62 63 63 62 62 62 61 60 60 61 59 58 58 57 57 59 59 60 58 56 55 54 54 55 54 52 59 60 60 61
62 62 62 62 62 63 63 65 65 65 64 63 61 60 60 62 62 61 62 62 63 63 64 63 62 61 62 62 61 61 61 61 62 61 62 62 62 62 63 63 62 60 60 60 58 55 58 58 59 59 59 59 60 59 60 55 51 54 54 57 59 60
62 62 62 62 61 62 64 63 63 63 63 62 62 60 61 61 61 62 63 63 62 61 62 63 62 62 62 62 61 61 61 60 61 61 62 62 61 61 63 62 61 60 61 60 59 59 57 58 57 58 58 58 60 59 60 58 57 55 54 53 56 60
62 62 62 61 61 61 64 64 65 64 62 62 62 62 61 62 62 63 61 60 61 60 61 61 61 61 60 62 62 60 60 61 61 61 62 62 61 62 61 61 60 60 59 58 59 59 59 57 58 58 58 57 58 57 57 57 58 57 54 54 55 57
62 61 61 60 61 61 63 64 65 63 62 61 62 61 62 61 60 60 60 60 60 60 60 60 61 60 61 61 61 61 61 62 61 62 63 62 61 61 60 60 59 59 59 59 59 60 60 58 59 59 58 58 57 56 57 56 56 56 56 55 55 56
62 61 61 61 61 62 64 65 65 64 63 62 62 62 60 59 58 59 60 60 60 60 60 61 60 59 59 60 61 61 61 61 61 62 62 62 61 60 60 59 59 59 59 59 58 58 58 58 58 57 57 58 59 59 57 55 55 54 53 54 55 56
62 61 61 61 61 63 64 65 64 64 63 63 63 63 61 59 60 60 59 59 59 59 59 60 59 59 59 59 61 59 60 60 60 60 60 60 60 60 60 60 59 59 58 57 58 59 57 57 57 57 56 57 58 57 55 59 58 58 56 56 57 55
61 61 61 61 61 62 63 64 64 64 63 63 63 63 62 61 60 60 59 58 58 58 58 60 58 59 58 59 60 61 61 59 59 59 59 60 59 59 59 59 59 58 57 57 56 56 56 55 55 56 56 56 57 58 58 58 59 57 57 57 57 55
61 61 61 60 60 61 62 62 63 63 63 63 62 63 62 62 61 60 60 60 59 58 58 58 57 58 58 58 59 59 59 58 58 58 60 59 59 59 59 60 59 58 57 55 56 56 56 56 56 55 56 56 56 56 57 59 59 59 58 58 55 56
60 60 60 60 60 61 60 61 61 62 63 62 63 62 62 62 61 61 61 61 60 58 58 57 58 58 58 58 57 58 59 59 59 59 59 59 60 58 57 59 58 56 56 56 58 58 56 57 58 57 57 57 58 57 57 58 59 61 60 59 58 56
61 60 60 60 60 61 60 61 61 62 62 63 63 62 61 61 60 62 61 61 60 59 59 58 58 58 59 59 58 58 58 58 58 58 58 58 57 57 56 57 55 56 57 59 59 57 56 57 56 55 56 56 59 57 58 59 60 59 60 59 58 56
60 59 59 59 60 61 60 60 61 62 61 62 63 62 61 60 60 61 61 61 60 60 59 60 60 58 57 57 57 56 57 57 58 57 57 57 56 55 55 56 57 55 56 55 58 57 56 57 54 55 55 55 56 56 55 56 58 59 59 58 59 58